Observation data for Sweetwater on 11/16/2019      Previous  Date       Current Mesonet Observations  Soil Data  Daily Summary Page  Observations in Plain Language
KSW1 160600Z 16008KT 07/M02 A3022 RMK A01 T00661015  RH  056%=      5-min Rain = 0
KSW1 160601Z 16008KT 07/M02 A3022 RMK A01 T00661015  RH  056%=      5-min Rain = 0
KSW1 160602Z 16008KT 07/M02 A3022 RMK A01 T00661015  RH  056%=      5-min Rain = 0
KSW1 160603Z 16008KT 07/M02 A3022 RMK A01 T00651015  RH  057%=      5-min Rain = 0
KSW1 160604Z 16008KT 07/M02 A3022 RMK A01 T00651015  RH  057%=      5-min Rain = 0
KSW1 160605Z 16009KT 07/M02 A3022 RMK A01 T00651015  RH  056%=      5-min Rain = 0
KSW1 160606Z 15008KT 07/M02 A3022 RMK A01 T00651015  RH  057%=      5-min Rain = 0
KSW1 160607Z 15009KT 07/M01 A3022 RMK A01 T00651014  RH  057%=      5-min Rain = 0
KSW1 160608Z 16009KT 07/M01 A3022 RMK A01 T00651014  RH  057%=      5-min Rain = 0
KSW1 160609Z 15008KT 07/M02 A3022 RMK A01 T00651015  RH  057%=      5-min Rain = 0
KSW1 160610Z 15009KT 07/M01 A3022 RMK A01 T00651014  RH  057%=      5-min Rain = 0
KSW1 160611Z 15009KT 07/M01 A3022 RMK A01 T00651014  RH  057%=      5-min Rain = 0
KSW1 160612Z 15008KT 06/M01 A3021 RMK A01 T00641014  RH  057%=      5-min Rain = 0
KSW1 160613Z 15008KT 06/M01 A3021 RMK A01 T00641014  RH  057%=      5-min Rain = 0
KSW1 160614Z 15008KT 06/M01 A3021 RMK A01 T00641014  RH  057%=      5-min Rain = 0
KSW1 160615Z 15008KT 06/M01 A3021 RMK A01 T00641014  RH  057%=      5-min Rain = 0
KSW1 160616Z 15008KT 06/M01 A3021 RMK A01 T00641014  RH  057%=      5-min Rain = 0
KSW1 160617Z 15008KT 06/M01 A3021 RMK A01 T00641014  RH  058%=      5-min Rain = 0
KSW1 160618Z 16008KT 06/M01 A3021 RMK A01 T00631014  RH  058%=      5-min Rain = 0
KSW1 160619Z 15008KT 06/M01 A3021 RMK A01 T00641014  RH  057%=      5-min Rain = 0
KSW1 160620Z 15008KT 06/M01 A3021 RMK A01 T00641014  RH  057%=      5-min Rain = 0
KSW1 160621Z 15008KT 06/M01 A3021 RMK A01 T00641014  RH  057%=      5-min Rain = 0
KSW1 160622Z 15008KT 06/M01 A3021 RMK A01 T00641014  RH  057%=      5-min Rain = 0
KSW1 160623Z 15009KT 06/M01 A3021 RMK A01 T00641014  RH  057%=      5-min Rain = 0
KSW1 160624Z 15008KT 06/M01 A3021 RMK A01 T00641014  RH  057%=      5-min Rain = 0
KSW1 160625Z 16008KT 06/M01 A3021 RMK A01 T00641014  RH  057%=      5-min Rain = 0
KSW1 160626Z 16008KT 06/M01 A3021 RMK A01 T00641014  RH  057%=      5-min Rain = 0
KSW1 160627Z 16008KT 06/M01 A3021 RMK A01 T00641014  RH  057%=      5-min Rain = 0
KSW1 160628Z 16008KT 06/M01 A3021 RMK A01 T00641014  RH  057%=      5-min Rain = 0
KSW1 160629Z 16007KT 06/M01 A3021 RMK A01 T00641014  RH  057%=      5-min Rain = 0
KSW1 160630Z 16008KT 06/M01 A3021 RMK A01 T00641014  RH  057%=      5-min Rain = 0
KSW1 160631Z 16008KT 06/M01 A3021 RMK A01 T00641014  RH  057%=      5-min Rain = 0
KSW1 160632Z 16008KT 06/M01 A3021 RMK A01 T00641014  RH  057%=      5-min Rain = 0
KSW1 160633Z 15008KT 06/M01 A3021 RMK A01 T00641014  RH  057%=      5-min Rain = 0
KSW1 160634Z 15008KT 06/M01 A3021 RMK A01 T00641014  RH  057%=      5-min Rain = 0
KSW1 160635Z 16008KT 06/M01 A3021 RMK A01 T00641014  RH  057%=      5-min Rain = 0
KSW1 160636Z 16008KT 06/M01 A3021 RMK A01 T00641014  RH  057%=      5-min Rain = 0
KSW1 160637Z 15009KT 07/M01 A3021 RMK A01 T00651014  RH  057%=      5-min Rain = 0
KSW1 160638Z 15008KT 07/M01 A3021 RMK A01 T00651014  RH  057%=      5-min Rain = 0
KSW1 160639Z 16009KT 07/M01 A3021 RMK A01 T00651014  RH  057%=      5-min Rain = 0
KSW1 160640Z 16008KT 07/M01 A3021 RMK A01 T00651014  RH  057%=      5-min Rain = 0
KSW1 160641Z 15008KT 07/M01 A3021 RMK A01 T00651014  RH  057%=      5-min Rain = 0
KSW1 160642Z 16009KT 07/M01 A3021 RMK A01 T00661014  RH  057%=      5-min Rain = 0
KSW1 160643Z 16009KT 07/M01 A3021 RMK A01 T00661014  RH  057%=      5-min Rain = 0
KSW1 160644Z 16008KT 07/M01 A3021 RMK A01 T00661014  RH  056%=      5-min Rain = 0
KSW1 160645Z 16008KT 07/M01 A3021 RMK A01 T00671014  RH  056%=      5-min Rain = 0
KSW1 160646Z 16008KT 07/M01 A3021 RMK A01 T00671014  RH  056%=      5-min Rain = 0
KSW1 160647Z 16008KT 07/M01 A3021 RMK A01 T00681014  RH  056%=      5-min Rain = 0
KSW1 160648Z 16008KT 07/M02 A3021 RMK A01 T00671015  RH  056%=      5-min Rain = 0
KSW1 160649Z 16008KT 07/M01 A3021 RMK A01 T00681014  RH  056%=      5-min Rain = 0
KSW1 160650Z 16008KT 07/M01 A3021 RMK A01 T00681014  RH  056%=      5-min Rain = 0
KSW1 160651Z 15008KT 07/M02 A3021 RMK A01 T00681015  RH  056%=      5-min Rain = 0
KSW1 160652Z 16008KT 07/M01 A3021 RMK A01 T00681014  RH  056%=      5-min Rain = 0
KSW1 160653Z 16008KT 07/M01 A3021 RMK A01 T00681014  RH  056%=      5-min Rain = 0
KSW1 160654Z 16008KT 07/M01 A3021 RMK A01 T00681014  RH  056%=      5-min Rain = 0
KSW1 160655Z 16008KT 07/M01 A3021 RMK A01 T00681014  RH  056%=      5-min Rain = 0
KSW1 160656Z 16009KT 07/M01 A3021 RMK A01 T00681014  RH  056%=      5-min Rain = 0
KSW1 160657Z 16008KT 07/M01 A3021 RMK A01 T00691014  RH  055%=      5-min Rain = 0
KSW1 160658Z 16008KT 07/M01 A3021 RMK A01 T00701014  RH  055%=      5-min Rain = 0
KSW1 160659Z 15008KT 07/M01 A3021 RMK A01 T00701014  RH  055%=      5-min Rain = 0
KSW1 160700Z 16009KT 07/M01 A3021 RMK A01 T00701014  RH  055%=      5-min Rain = 0
KSW1 160701Z 16008KT 07/M01 A3021 RMK A01 T00711014  RH  055%=      5-min Rain = 0
KSW1 160702Z 16008KT 07/M01 A3021 RMK A01 T00711014  RH  055%=      5-min Rain = 0
KSW1 160703Z 16009KT 07/M01 A3021 RMK A01 T00711013  RH  055%=      5-min Rain = 0
KSW1 160704Z 16008KT 07/M01 A3021 RMK A01 T00721014  RH  055%=      5-min Rain = 0
KSW1 160705Z 17008KT 07/M01 A3021 RMK A01 T00721014  RH  054%=      5-min Rain = 0
KSW1 160706Z 16008KT 07/M01 A3021 RMK A01 T00731014  RH  054%=      5-min Rain = 0
KSW1 160707Z 17007KT 07/M01 A3021 RMK A01 T00731014  RH  054%=      5-min Rain = 0
KSW1 160708Z 17007KT 07/M01 A3021 RMK A01 T00731014  RH  054%=      5-min Rain = 0
KSW1 160709Z 17008KT 07/M01 A3021 RMK A01 T00731013  RH  054%=      5-min Rain = 0
KSW1 160710Z 17008KT 07/M01 A3021 RMK A01 T00741013  RH  054%=      5-min Rain = 0
KSW1 160711Z 17008KT 08/M01 A3021 RMK A01 T00751013  RH  053%=      5-min Rain = 0
KSW1 160712Z 17009KT 08/M01 A3021 RMK A01 T00761013  RH  053%=      5-min Rain = 0
KSW1 160713Z 17010KT 08/M01 A3021 RMK A01 T00781013  RH  053%=      5-min Rain = 0
KSW1 160714Z 17009KT 08/M01 A3021 RMK A01 T00791013  RH  052%=      5-min Rain = 0
KSW1 160715Z 17009KT 08/M01 A3021 RMK A01 T00791013  RH  052%=      5-min Rain = 0
KSW1 160716Z 17009KT 08/M01 A3021 RMK A01 T00801013  RH  052%=      5-min Rain = 0
KSW1 160717Z 17010KT 08/M01 A3021 RMK A01 T00801013  RH  052%=      5-min Rain = 0
KSW1 160718Z 17009KT 08/M01 A3021 RMK A01 T00811013  RH  052%=      5-min Rain = 0
KSW1 160719Z 17010KT 08/M01 A3021 RMK A01 T00811013  RH  052%=      5-min Rain = 0
KSW1 160720Z 17010KT 08/M01 A3021 RMK A01 T00811013  RH  052%=      5-min Rain = 0
KSW1 160721Z 17009KT 08/M01 A3021 RMK A01 T00811013  RH  052%=      5-min Rain = 0
KSW1 160722Z 17010KT 08/M01 A302 RMK A01 T00811013  RH  051%=      5-min Rain = 0
KSW1 160723Z 17009KT 08/M01 A302 RMK A01 T00821013  RH  051%=      5-min Rain = 0
KSW1 160724Z 17009KT 08/M01 A302 RMK A01 T00821013  RH  051%=      5-min Rain = 0
KSW1 160725Z 17009KT 08/M01 A302 RMK A01 T00821012  RH  051%=      5-min Rain = 0
KSW1 160726Z 17009KT 08/M01 A302 RMK A01 T00821013  RH  051%=      5-min Rain = 0
KSW1 160727Z 17009KT 08/M01 A302 RMK A01 T00821013  RH  051%=      5-min Rain = 0
KSW1 160728Z 17010KT 08/M01 A302 RMK A01 T00821012  RH  052%=      5-min Rain = 0
KSW1 160729Z 17009KT 08/M01 A302 RMK A01 T00811013  RH  051%=      5-min Rain = 0
KSW1 160730Z 17009KT 08/M01 A302 RMK A01 T00811012  RH  052%=      5-min Rain = 0
KSW1 160731Z 17009KT 08/M01 A302 RMK A01 T00811013  RH  052%=      5-min Rain = 0
KSW1 160732Z 18009KT 08/M01 A302 RMK A01 T00811012  RH  052%=      5-min Rain = 0
KSW1 160733Z 17009KT 08/M01 A302 RMK A01 T00811012  RH  052%=      5-min Rain = 0
KSW1 160734Z 18009KT 08/M01 A302 RMK A01 T00801012  RH  052%=      5-min Rain = 0
KSW1 160735Z 18009KT 08/M01 A302 RMK A01 T00791012  RH  052%=      5-min Rain = 0
KSW1 160736Z 18009KT 08/M01 A302 RMK A01 T00801012  RH  052%=      5-min Rain = 0
KSW1 160737Z 18009KT 08/M01 A302 RMK A01 T00801011  RH  053%=      5-min Rain = 0
KSW1 160738Z 18009KT 08/M01 A302 RMK A01 T00791011  RH  053%=      5-min Rain = 0
KSW1 160739Z 18009KT 08/M01 A302 RMK A01 T00791012  RH  053%=      5-min Rain = 0
KSW1 160740Z 18010KT 08/M01 A302 RMK A01 T00781012  RH  053%=      5-min Rain = 0
KSW1 160741Z 18009KT 08/M01 A302 RMK A01 T00781012  RH  053%=      5-min Rain = 0
KSW1 160742Z 18010KT 08/M01 A302 RMK A01 T00791012  RH  053%=      5-min Rain = 0
KSW1 160743Z 18009KT 08/M01 A302 RMK A01 T00791012  RH  053%=      5-min Rain = 0
KSW1 160744Z 18009KT 08/M01 A302 RMK A01 T00781012  RH  053%=      5-min Rain = 0
KSW1 160745Z 18009KT 08/M01 A302 RMK A01 T00781012  RH  053%=      5-min Rain = 0
KSW1 160746Z 18010KT 08/M01 A302 RMK A01 T00781012  RH  053%=      5-min Rain = 0
KSW1 160747Z 18010KT 08/M01 A302 RMK A01 T00781012  RH  053%=      5-min Rain = 0
KSW1 160748Z 18010KT 08/M01 A302 RMK A01 T00781012  RH  053%=      5-min Rain = 0
KSW1 160749Z 18009KT 08/M01 A302 RMK A01 T00781012  RH  053%=      5-min Rain = 0
KSW1 160750Z 18010KT 08/M01 A302 RMK A01 T00781012  RH  053%=      5-min Rain = 0
KSW1 160751Z 17010KT 08/M01 A302 RMK A01 T00771012  RH  053%=      5-min Rain = 0
KSW1 160752Z 17010KT 08/M01 A302 RMK A01 T00771013  RH  053%=      5-min Rain = 0
KSW1 160753Z 17010KT 08/M01 A302 RMK A01 T00781012  RH  053%=      5-min Rain = 0
KSW1 160754Z 17009KT 08/M01 A302 RMK A01 T00781012  RH  053%=      5-min Rain = 0
KSW1 160755Z 17010KT 08/M01 A302 RMK A01 T00771012  RH  053%=      5-min Rain = 0
KSW1 160756Z 18010KT 08/M01 A302 RMK A01 T00771013  RH  053%=      5-min Rain = 0
KSW1 160757Z 17010KT 08/M01 A302 RMK A01 T00771013  RH  053%=      5-min Rain = 0
KSW1 160758Z 17011KT 08/M01 A302 RMK A01 T00781013  RH  052%=      5-min Rain = 0
KSW1 160759Z 17012KT 08/M01 A302 RMK A01 T00791013  RH  052%=      5-min Rain = 0
KSW1 160800Z 17010KT 08/M01 A302 RMK A01 T00801013  RH  052%=      5-min Rain = 0
KSW1 160801Z 17010KT 08/M01 A302 RMK A01 T00801013  RH  052%=      5-min Rain = 0
KSW1 160802Z 17010KT 08/M01 A302 RMK A01 T00801013  RH  052%=      5-min Rain = 0
KSW1 160803Z 17010KT 08/M01 A302 RMK A01 T00791013  RH  052%=      5-min Rain = 0
KSW1 160804Z 17009KT 08/M01 A302 RMK A01 T00791013  RH  052%=      5-min Rain = 0
KSW1 160805Z 17010KT 08/M01 A302 RMK A01 T00781013  RH  052%=      5-min Rain = 0
KSW1 160806Z 17009KT 08/M01 A302 RMK A01 T00781013  RH  052%=      5-min Rain = 0
KSW1 160807Z 17010KT 08/M01 A302 RMK A01 T00781013  RH  052%=      5-min Rain = 0
KSW1 160808Z 17009KT 08/M01 A302 RMK A01 T00781013  RH  052%=      5-min Rain = 0
KSW1 160809Z 17009KT 08/M01 A302 RMK A01 T00781013  RH  053%=      5-min Rain = 0
KSW1 160810Z 17009KT 08/M01 A302 RMK A01 T00781014  RH  052%=      5-min Rain = 0
KSW1 160811Z 17009KT 08/M01 A302 RMK A01 T00781013  RH  053%=      5-min Rain = 0
KSW1 160812Z 17010KT 08/M01 A302 RMK A01 T00771013  RH  053%=      5-min Rain = 0
KSW1 160813Z 17009KT 08/M01 A302 RMK A01 T00771013  RH  053%=      5-min Rain = 0
KSW1 160814Z 17008KT 08/M01 A302 RMK A01 T00781013  RH  053%=      5-min Rain = 0
KSW1 160815Z 17009KT 08/M01 A302 RMK A01 T00771013  RH  053%=      5-min Rain = 0
KSW1 160816Z 17008KT 08/M01 A302 RMK A01 T00771013  RH  053%=      5-min Rain = 0
KSW1 160817Z 17008KT 08/M01 A302 RMK A01 T00761013  RH  053%=      5-min Rain = 0
KSW1 160818Z 17008KT 08/M01 A302 RMK A01 T00761013  RH  053%=      5-min Rain = 0
KSW1 160819Z 17007KT 08/M01 A302 RMK A01 T00761013  RH  054%=      5-min Rain = 0
KSW1 160820Z 17007KT 08/M01 A302 RMK A01 T00751013  RH  054%=      5-min Rain = 0
KSW1 160821Z 17008KT 08/M01 A302 RMK A01 T00751012  RH  054%=      5-min Rain = 0
KSW1 160822Z 17008KT 08/M01 A302 RMK A01 T00751012  RH  054%=      5-min Rain = 0
KSW1 160823Z 17008KT 08/M01 A302 RMK A01 T00751012  RH  054%=      5-min Rain = 0
KSW1 160824Z 17007KT 07/M01 A302 RMK A01 T00741011  RH  055%=      5-min Rain = 0
KSW1 160825Z 17007KT 07/M01 A302 RMK A01 T00741011  RH  055%=      5-min Rain = 0
KSW1 160826Z 17008KT 07/M01 A302 RMK A01 T00731011  RH  055%=      5-min Rain = 0
KSW1 160827Z 17008KT 07/M01 A302 RMK A01 T00731011  RH  055%=      5-min Rain = 0
KSW1 160828Z 18008KT 07/M01 A302 RMK A01 T00731010  RH  055%=      5-min Rain = 0
KSW1 160829Z 17008KT 07/M01 A302 RMK A01 T00731010  RH  056%=      5-min Rain = 0
KSW1 160830Z 17008KT 07/M01 A302 RMK A01 T00731010  RH  056%=      5-min Rain = 0
KSW1 160831Z 17008KT 07/M01 A3019 RMK A01 T00731010  RH  056%=      5-min Rain = 0
KSW1 160832Z 17008KT 07/M01 A3019 RMK A01 T00721010  RH  056%=      5-min Rain = 0
KSW1 160833Z 17008KT 07/M01 A3019 RMK A01 T00721010  RH  056%=      5-min Rain = 0
KSW1 160834Z 17009KT 07/M01 A3019 RMK A01 T00711010  RH  056%=      5-min Rain = 0
KSW1 160835Z 17008KT 07/M01 A3019 RMK A01 T00711010  RH  057%=      5-min Rain = 0
KSW1 160836Z 17009KT 07/M01 A3019 RMK A01 T00701009  RH  057%=      5-min Rain = 0
KSW1 160837Z 17008KT 07/M01 A3019 RMK A01 T00701009  RH  057%=      5-min Rain = 0
KSW1 160838Z 17008KT 07/M01 A3019 RMK A01 T00691010  RH  057%=      5-min Rain = 0
KSW1 160839Z 17009KT 07/M01 A3019 RMK A01 T00691010  RH  057%=      5-min Rain = 0
KSW1 160840Z 17008KT 07/M01 A3019 RMK A01 T00691010  RH  057%=      5-min Rain = 0
KSW1 160841Z 17008KT 07/M01 A3019 RMK A01 T00691009  RH  057%=      5-min Rain = 0
KSW1 160842Z 17008KT 07/M01 A3019 RMK A01 T00691009  RH  057%=      5-min Rain = 0
KSW1 160843Z 17008KT 07/M01 A3019 RMK A01 T00691010  RH  057%=      5-min Rain = 0
KSW1 160844Z 17009KT 07/M01 A3019 RMK A01 T00681009  RH  058%=      5-min Rain = 0
KSW1 160845Z 17009KT 07/M01 A3019 RMK A01 T00681009  RH  058%=      5-min Rain = 0
KSW1 160846Z 17008KT 07/M01 A3019 RMK A01 T00681009  RH  058%=      5-min Rain = 0
KSW1 160847Z 17009KT 07/M01 A3019 RMK A01 T00681009  RH  058%=      5-min Rain = 0
KSW1 160848Z 17009KT 07/M01 A3019 RMK A01 T00681009  RH  058%=      5-min Rain = 0
KSW1 160849Z 17009KT 07/M01 A3019 RMK A01 T00681009  RH  058%=      5-min Rain = 0
KSW1 160850Z 17008KT 07/M01 A3019 RMK A01 T00671009  RH  058%=      5-min Rain = 0
KSW1 160851Z 17008KT 07/M01 A3019 RMK A01 T00671009  RH  058%=      5-min Rain = 0
KSW1 160852Z 17008KT 07/M01 A3019 RMK A01 T00671009  RH  058%=      5-min Rain = 0
KSW1 160853Z 17009KT 07/M01 A3019 RMK A01 T00671009  RH  058%=      5-min Rain = 0
KSW1 160854Z 17008KT 07/M01 A3019 RMK A01 T00681009  RH  058%=      5-min Rain = 0
KSW1 160855Z 17008KT 07/M01 A3019 RMK A01 T00681008  RH  058%=      5-min Rain = 0
KSW1 160856Z 17008KT 07/M01 A3019 RMK A01 T00681008  RH  058%=      5-min Rain = 0
KSW1 160857Z 17008KT 07/M01 A3019 RMK A01 T00681008  RH  059%=      5-min Rain = 0
KSW1 160858Z 17008KT 07/M01 A3019 RMK A01 T00671008  RH  059%=      5-min Rain = 0
KSW1 160859Z 18009KT 07/M01 A3019 RMK A01 T00671008  RH  059%=      5-min Rain = 0
KSW1 160900Z 17009KT 07/M01 A3019 RMK A01 T00671007  RH  059%=      5-min Rain = 0
KSW1 160901Z 17009KT 07/M01 A3019 RMK A01 T00671007  RH  059%=      5-min Rain = 0
KSW1 160902Z 18009KT 07/M01 A3019 RMK A01 T00681007  RH  059%=      5-min Rain = 0
KSW1 160903Z 18009KT 07/M01 A3019 RMK A01 T00681007  RH  059%=      5-min Rain = 0
KSW1 160904Z 18009KT 07/M01 A3019 RMK A01 T00681007  RH  059%=      5-min Rain = 0
KSW1 160905Z 17008KT 07/M01 A3019 RMK A01 T00691006  RH  059%=      5-min Rain = 0
KSW1 160906Z 17009KT 07/M01 A3019 RMK A01 T00681007  RH  059%=      5-min Rain = 0
KSW1 160907Z 18009KT 07/M01 A3019 RMK A01 T00691007  RH  059%=      5-min Rain = 0
KSW1 160908Z 18009KT 07/M01 A3019 RMK A01 T00691007  RH  058%=      5-min Rain = 0
KSW1 160909Z 18010KT 07/M01 A3019 RMK A01 T00691007  RH  058%=      5-min Rain = 0
KSW1 160910Z 18009KT 07/M01 A3019 RMK A01 T00701007  RH  058%=      5-min Rain = 0
KSW1 160911Z 18009KT 07/M01 A3019 RMK A01 T00701006  RH  058%=      5-min Rain = 0
KSW1 160912Z 18009KT 07/M01 A3019 RMK A01 T00701006  RH  058%=      5-min Rain = 0
KSW1 160913Z 18009KT 07/M01 A3019 RMK A01 T00691006  RH  058%=      5-min Rain = 0
KSW1 160914Z 18009KT 07/M01 A3019 RMK A01 T00691006  RH  059%=      5-min Rain = 0
KSW1 160915Z 18009KT 07/M01 A3019 RMK A01 T00691006  RH  059%=      5-min Rain = 0
KSW1 160916Z 18009KT 07/M01 A3019 RMK A01 T00691006  RH  059%=      5-min Rain = 0
KSW1 160917Z 18009KT 07/M01 A3019 RMK A01 T00691006  RH  059%=      5-min Rain = 0
KSW1 160918Z 18010KT 07/M01 A3019 RMK A01 T00691006  RH  059%=      5-min Rain = 0
KSW1 160919Z 18009KT 07/M01 A3019 RMK A01 T00691006  RH  059%=      5-min Rain = 0
KSW1 160920Z 18008KT 07/M01 A3019 RMK A01 T00691006  RH  059%=      5-min Rain = 0
KSW1 160921Z 18009KT 07/M01 A3018 RMK A01 T00681006  RH  059%=      5-min Rain = 0
KSW1 160922Z 18009KT 07/M01 A3018 RMK A01 T00691006  RH  059%=      5-min Rain = 0
KSW1 160923Z 18009KT 07/M01 A3018 RMK A01 T00691006  RH  059%=      5-min Rain = 0
KSW1 160924Z 18009KT 07/M01 A3018 RMK A01 T00681006  RH  059%=      5-min Rain = 0
KSW1 160925Z 18010KT 07/M01 A3018 RMK A01 T00691006  RH  059%=      5-min Rain = 0
KSW1 160926Z 18010KT 07/M01 A3018 RMK A01 T00691006  RH  059%=      5-min Rain = 0
KSW1 160927Z 18009KT 07/M01 A3018 RMK A01 T00691005  RH  059%=      5-min Rain = 0
KSW1 160928Z 18010KT 07/M01 A3018 RMK A01 T00691005  RH  059%=      5-min Rain = 0
KSW1 160929Z 18010KT 07/M01 A3018 RMK A01 T00681006  RH  059%=      5-min Rain = 0
KSW1 160930Z 18010KT 07/M01 A3018 RMK A01 T00681006  RH  059%=      5-min Rain = 0
KSW1 160931Z 18010KT 07/M01 A3018 RMK A01 T00681006  RH  059%=      5-min Rain = 0
KSW1 160932Z 18009KT 07/M01 A3018 RMK A01 T00681006  RH  059%=      5-min Rain = 0
KSW1 160933Z 18010KT 07/M01 A3018 RMK A01 T00681006  RH  059%=      5-min Rain = 0
KSW1 160934Z 18009KT 07/M01 A3018 RMK A01 T00681006  RH  059%=      5-min Rain = 0
KSW1 160935Z 18009KT 07/M01 A3018 RMK A01 T00681005  RH  059%=      5-min Rain = 0
KSW1 160936Z 18009KT 07/M01 A3018 RMK A01 T00681006  RH  059%=      5-min Rain = 0
KSW1 160937Z 18009KT 07/M01 A3018 RMK A01 T00681005  RH  059%=      5-min Rain = 0
KSW1 160938Z 18009KT 07/M01 A3018 RMK A01 T00681006  RH  059%=      5-min Rain = 0
KSW1 160939Z 18009KT 07/M01 A3018 RMK A01 T00681006  RH  060%=      5-min Rain = 0
KSW1 160940Z 18009KT 07/M01 A3018 RMK A01 T00671006  RH  060%=      5-min Rain = 0
KSW1 160941Z 18010KT 07/M01 A3018 RMK A01 T00671005  RH  060%=      5-min Rain = 0
KSW1 160942Z 18009KT 07/M01 A3018 RMK A01 T00671005  RH  060%=      5-min Rain = 0
KSW1 160943Z 18009KT 07/M01 A3018 RMK A01 T00671006  RH  060%=      5-min Rain = 0
KSW1 160944Z 18010KT 07/M01 A3018 RMK A01 T00671006  RH  060%=      5-min Rain = 0
KSW1 160945Z 18009KT 07/M01 A3018 RMK A01 T00671006  RH  059%=      5-min Rain = 0
KSW1 160946Z 18009KT 07/M01 A3018 RMK A01 T00671006  RH  060%=      5-min Rain = 0
KSW1 160947Z 18009KT 07/M01 A3018 RMK A01 T00661006  RH  060%=      5-min Rain = 0
KSW1 160948Z 18008KT 07/M01 A3018 RMK A01 T00661006  RH  060%=      5-min Rain = 0
KSW1 160949Z 18008KT 07/M01 A3018 RMK A01 T00651005  RH  061%=      5-min Rain = 0
KSW1 160950Z 18008KT 07/M01 A3018 RMK A01 T00651005  RH  061%=      5-min Rain = 0
KSW1 160951Z 18008KT 06/M01 A3018 RMK A01 T00641005  RH  061%=      5-min Rain = 0
KSW1 160952Z 18008KT 06/M01 A3018 RMK A01 T00641005  RH  061%=      5-min Rain = 0
KSW1 160953Z 18009KT 06/M01 A3018 RMK A01 T00641005  RH  061%=      5-min Rain = 0
KSW1 160954Z 18009KT 06/M01 A3018 RMK A01 T00641005  RH  061%=      5-min Rain = 0
KSW1 160955Z 18009KT 06/M01 A3018 RMK A01 T00641005  RH  061%=      5-min Rain = 0
KSW1 160956Z 18008KT 06/M01 A3018 RMK A01 T00641005  RH  062%=      5-min Rain = 0
KSW1 160957Z 18008KT 06/M01 A3018 RMK A01 T00631005  RH  062%=      5-min Rain = 0
KSW1 160958Z 18008KT 06/M01 A3018 RMK A01 T00631005  RH  062%=      5-min Rain = 0
KSW1 160959Z 18008KT 06/M01 A3018 RMK A01 T00631005  RH  062%=      5-min Rain = 0
KSW1 161000Z 18008KT 06/M01 A3018 RMK A01 T00631005  RH  062%=      5-min Rain = 0
KSW1 161001Z 18008KT 06/M01 A3018 RMK A01 T00631005  RH  062%=      5-min Rain = 0
KSW1 161002Z 18007KT 06/M01 A3018 RMK A01 T00631005  RH  062%=      5-min Rain = 0
KSW1 161003Z 18007KT 06/M01 A3018 RMK A01 T00631005  RH  062%=      5-min Rain = 0
KSW1 161004Z 18008KT 06/M01 A3018 RMK A01 T00621005  RH  062%=      5-min Rain = 0
KSW1 161005Z 19008KT 06/M01 A3018 RMK A01 T00631005  RH  062%=      5-min Rain = 0
KSW1 161006Z 19008KT 06/M01 A3018 RMK A01 T00631005  RH  062%=      5-min Rain = 0
KSW1 161007Z 19009KT 06/M01 A3018 RMK A01 T00631005  RH  062%=      5-min Rain = 0
KSW1 161008Z 19008KT 06/M01 A3018 RMK A01 T00631005  RH  062%=      5-min Rain = 0
KSW1 161009Z 19009KT 06/M01 A3018 RMK A01 T00631005  RH  062%=      5-min Rain = 0
KSW1 161010Z 19008KT 06/M01 A3018 RMK A01 T00631005  RH  062%=      5-min Rain = 0
KSW1 161011Z 18009KT 06/M01 A3018 RMK A01 T00631005  RH  062%=      5-min Rain = 0
KSW1 161012Z 18009KT 06/M01 A3018 RMK A01 T00621005  RH  062%=      5-min Rain = 0
KSW1 161013Z 18009KT 06/M01 A3018 RMK A01 T00621005  RH  062%=      5-min Rain = 0
KSW1 161014Z 18008KT 06/M01 A3018 RMK A01 T00631005  RH  062%=      5-min Rain = 0
KSW1 161015Z 18009KT 06/M00 A3018 RMK A01 T00621004  RH  062%=      5-min Rain = 0
KSW1 161016Z 18008KT 06/M01 A3018 RMK A01 T00621005  RH  062%=      5-min Rain = 0
KSW1 161017Z 18008KT 06/M01 A3018 RMK A01 T00621005  RH  062%=      5-min Rain = 0
KSW1 161018Z 18009KT 06/M00 A3018 RMK A01 T00621004  RH  062%=      5-min Rain = 0
KSW1 161019Z 18009KT 06/M00 A3018 RMK A01 T00611004  RH  063%=      5-min Rain = 0
KSW1 161020Z 17009KT 06/M00 A3018 RMK A01 T00611004  RH  063%=      5-min Rain = 0
KSW1 161021Z 18009KT 06/M00 A3018 RMK A01 T00611004  RH  063%=      5-min Rain = 0
KSW1 161022Z 18010KT 06/M01 A3018 RMK A01 T00621005  RH  063%=      5-min Rain = 0
KSW1 161023Z 18009KT 06/M00 A3018 RMK A01 T00621004  RH  062%=      5-min Rain = 0
KSW1 161024Z 18009KT 06/M00 A3018 RMK A01 T00621004  RH  062%=      5-min Rain = 0
KSW1 161025Z 17009KT 06/M00 A3018 RMK A01 T00621004  RH  062%=      5-min Rain = 0
KSW1 161026Z 17008KT 06/M00 A3018 RMK A01 T00621004  RH  062%=      5-min Rain = 0
KSW1 161027Z 18009KT 06/M00 A3018 RMK A01 T00631003  RH  063%=      5-min Rain = 0
KSW1 161028Z 18009KT 06/M00 A3018 RMK A01 T00621004  RH  063%=      5-min Rain = 0
KSW1 161029Z 18009KT 06/M00 A3018 RMK A01 T00621004  RH  063%=      5-min Rain = 0
KSW1 161030Z 18009KT 06/M00 A3018 RMK A01 T00621003  RH  063%=      5-min Rain = 0
KSW1 161031Z 18009KT 06/M00 A3018 RMK A01 T00611004  RH  063%=      5-min Rain = 0
KSW1 161032Z 18009KT 06/M00 A3018 RMK A01 T00611004  RH  063%=      5-min Rain = 0
KSW1 161033Z 18008KT 06/M00 A3018 RMK A01 T00611003  RH  063%=      5-min Rain = 0
KSW1 161034Z 18008KT 06/M00 A3018 RMK A01 T00601004  RH  063%=      5-min Rain = 0
KSW1 161035Z 18009KT 06/M00 A3018 RMK A01 T00601004  RH  063%=      5-min Rain = 0
KSW1 161036Z 18008KT 06/M00 A3018 RMK A01 T00601004  RH  063%=      5-min Rain = 0
KSW1 161037Z 18009KT 06/M00 A3018 RMK A01 T00601004  RH  064%=      5-min Rain = 0
KSW1 161038Z 18009KT 06/M00 A3018 RMK A01 T00601003  RH  064%=      5-min Rain = 0
KSW1 161039Z 18009KT 06/M00 A3018 RMK A01 T00591004  RH  064%=      5-min Rain = 0
KSW1 161040Z 18009KT 06/M00 A3018 RMK A01 T00591004  RH  064%=      5-min Rain = 0
KSW1 161041Z 18008KT 06/M00 A3018 RMK A01 T00591004  RH  064%=      5-min Rain = 0
KSW1 161042Z 18008KT 06/M00 A3018 RMK A01 T00581004  RH  064%=      5-min Rain = 0
KSW1 161043Z 18009KT 06/M00 A3018 RMK A01 T00581004  RH  065%=      5-min Rain = 0
KSW1 161044Z 18009KT 06/M00 A3018 RMK A01 T00571004  RH  065%=      5-min Rain = 0
KSW1 161045Z 18008KT 06/M00 A3018 RMK A01 T00581004  RH  065%=      5-min Rain = 0
KSW1 161046Z 18009KT 06/M00 A3018 RMK A01 T00571004  RH  065%=      5-min Rain = 0
KSW1 161047Z 18009KT 06/M00 A3018 RMK A01 T00571004  RH  065%=      5-min Rain = 0
KSW1 161048Z 18009KT 06/M00 A3018 RMK A01 T00571003  RH  065%=      5-min Rain = 0
KSW1 161049Z 18009KT 06/M00 A3018 RMK A01 T00571003  RH  065%=      5-min Rain = 0
KSW1 161050Z 19009KT 06/M00 A3018 RMK A01 T00571004  RH  065%=      5-min Rain = 0
KSW1 161051Z 19008KT 06/M00 A3018 RMK A01 T00561004  RH  065%=      5-min Rain = 0
KSW1 161052Z 19008KT 06/M00 A3018 RMK A01 T00551004  RH  066%=      5-min Rain = 0
KSW1 161053Z 19008KT 06/M00 A3018 RMK A01 T00551004  RH  066%=      5-min Rain = 0
KSW1 161054Z 19008KT 06/M00 A3018 RMK A01 T00551004  RH  066%=      5-min Rain = 0
KSW1 161055Z 19008KT 05/M00 A3018 RMK A01 T00541004  RH  066%=      5-min Rain = 0
KSW1 161056Z 19008KT 05/M00 A3018 RMK A01 T00541004  RH  066%=      5-min Rain = 0
KSW1 161057Z 19008KT 05/M00 A3018 RMK A01 T00531004  RH  066%=      5-min Rain = 0
KSW1 161058Z 19008KT 05/M00 A3018 RMK A01 T00531004  RH  067%=      5-min Rain = 0
KSW1 161059Z 19008KT 05/M00 A3018 RMK A01 T00521004  RH  067%=      5-min Rain = 0
KSW1 161100Z 19007KT 05/M00 A3018 RMK A01 T00521004  RH  067%=      5-min Rain = 0
KSW1 161101Z 19008KT 05/M00 A3018 RMK A01 T00521004  RH  067%=      5-min Rain = 0
KSW1 161102Z 19008KT 05/M00 A3018 RMK A01 T00511004  RH  067%=      5-min Rain = 0
KSW1 161103Z 19007KT 05/M00 A3018 RMK A01 T00521004  RH  067%=      5-min Rain = 0
KSW1 161104Z 19007KT 05/M00 A3018 RMK A01 T00521004  RH  067%=      5-min Rain = 0
KSW1 161105Z 19007KT 05/M00 A3018 RMK A01 T00511004  RH  067%=      5-min Rain = 0
KSW1 161106Z 19007KT 05/M00 A3018 RMK A01 T00501004  RH  068%=      5-min Rain = 0
KSW1 161107Z 18007KT 05/M00 A3018 RMK A01 T00501004  RH  068%=      5-min Rain = 0
KSW1 161108Z 19007KT 05/M01 A3018 RMK A01 T00491005  RH  068%=      5-min Rain = 0
KSW1 161109Z 18007KT 05/M00 A3018 RMK A01 T00491004  RH  068%=      5-min Rain = 0
KSW1 161110Z 19007KT 05/M00 A3018 RMK A01 T00501004  RH  068%=      5-min Rain = 0
KSW1 161111Z 19006KT 05/M00 A3018 RMK A01 T00491004  RH  069%=      5-min Rain = 0
KSW1 161112Z 19007KT 05/M00 A3018 RMK A01 T00491004  RH  069%=      5-min Rain = 0
KSW1 161113Z 19007KT 05/M00 A3018 RMK A01 T00491004  RH  068%=      5-min Rain = 0
KSW1 161114Z 19007KT 05/M00 A3018 RMK A01 T00491004  RH  068%=      5-min Rain = 0
KSW1 161115Z 19007KT 05/M00 A3018 RMK A01 T00491004  RH  068%=      5-min Rain = 0
KSW1 161116Z 19007KT 05/M00 A3018 RMK A01 T00501004  RH  068%=      5-min Rain = 0
KSW1 161117Z 19007KT 05/M00 A3018 RMK A01 T00501004  RH  068%=      5-min Rain = 0
KSW1 161118Z 19007KT 05/M00 A3018 RMK A01 T00501004  RH  068%=      5-min Rain = 0
KSW1 161119Z 19007KT 05/M00 A3018 RMK A01 T00501004  RH  068%=      5-min Rain = 0
KSW1 161120Z 19007KT 05/M00 A3018 RMK A01 T00501004  RH  068%=      5-min Rain = 0
KSW1 161121Z 19007KT 05/M00 A3018 RMK A01 T00491004  RH  068%=      5-min Rain = 0
KSW1 161122Z 19008KT 05/M00 A3018 RMK A01 T00491004  RH  068%=      5-min Rain = 0
KSW1 161123Z 19007KT 05/M00 A3018 RMK A01 T00491004  RH  068%=      5-min Rain = 0
KSW1 161124Z 19007KT 05/M00 A3018 RMK A01 T00491004  RH  068%=      5-min Rain = 0
KSW1 161125Z 19007KT 05/M00 A3018 RMK A01 T00491004  RH  068%=      5-min Rain = 0
KSW1 161126Z 18008KT 05/M00 A3018 RMK A01 T00491004  RH  068%=      5-min Rain = 0
KSW1 161127Z 19008KT 05/M00 A3018 RMK A01 T00501004  RH  068%=      5-min Rain = 0
KSW1 161128Z 19008KT 05/M00 A3018 RMK A01 T00501004  RH  068%=      5-min Rain = 0
KSW1 161129Z 19008KT 05/M00 A3018 RMK A01 T00511003  RH  068%=      5-min Rain = 0
KSW1 161130Z 19007KT 05/M00 A3018 RMK A01 T00521003  RH  068%=      5-min Rain = 0
KSW1 161131Z 19007KT 05/M00 A3018 RMK A01 T00521003  RH  067%=      5-min Rain = 0
KSW1 161132Z 19007KT 05/M00 A3018 RMK A01 T00521003  RH  067%=      5-min Rain = 0
KSW1 161133Z 19008KT 05/M00 A3018 RMK A01 T00531003  RH  067%=      5-min Rain = 0
KSW1 161134Z 19008KT 05/M00 A3018 RMK A01 T00521004  RH  067%=      5-min Rain = 0
KSW1 161135Z 19008KT 05/M00 A3018 RMK A01 T00531004  RH  067%=      5-min Rain = 0
KSW1 161136Z 19007KT 05/M00 A3018 RMK A01 T00521003  RH  067%=      5-min Rain = 0
KSW1 161137Z 20008KT 05/M00 A3018 RMK A01 T00521003  RH  067%=      5-min Rain = 0
KSW1 161138Z 19008KT 05/M00 A3018 RMK A01 T00521004  RH  067%=      5-min Rain = 0
KSW1 161139Z 19008KT 05/M00 A3018 RMK A01 T00521003  RH  067%=      5-min Rain = 0
KSW1 161140Z 19008KT 05/M00 A3018 RMK A01 T00521004  RH  067%=      5-min Rain = 0
KSW1 161141Z 19009KT 05/M00 A3018 RMK A01 T00521004  RH  067%=      5-min Rain = 0
KSW1 161142Z 19008KT 05/M00 A3018 RMK A01 T00521004  RH  067%=      5-min Rain = 0
KSW1 161143Z 19008KT 05/M00 A3018 RMK A01 T00521003  RH  067%=      5-min Rain = 0
KSW1 161144Z 19008KT 05/M00 A3018 RMK A01 T00521003  RH  068%=      5-min Rain = 0
KSW1 161145Z 19008KT 05/M00 A3018 RMK A01 T00521003  RH  068%=      5-min Rain = 0
KSW1 161146Z 19008KT 05/M00 A3018 RMK A01 T00511003  RH  068%=      5-min Rain = 0
KSW1 161147Z 19007KT 05/M00 A3018 RMK A01 T00511003  RH  068%=      5-min Rain = 0
KSW1 161148Z 19007KT 05/M00 A3018 RMK A01 T00511003  RH  068%=      5-min Rain = 0
KSW1 161149Z 19008KT 05/M00 A3018 RMK A01 T00511003  RH  068%=      5-min Rain = 0
KSW1 161150Z 19008KT 05/M00 A3018 RMK A01 T00501003  RH  068%=      5-min Rain = 0
KSW1 161151Z 18008KT 05/M00 A3018 RMK A01 T00501003  RH  068%=      5-min Rain = 0
KSW1 161152Z 19008KT 05/M00 A3018 RMK A01 T00501003  RH  069%=      5-min Rain = 0
KSW1 161153Z 18008KT 05/M00 A3018 RMK A01 T00501003  RH  069%=      5-min Rain = 0
KSW1 161154Z 19008KT 05/M00 A3018 RMK A01 T00501003  RH  069%=      5-min Rain = 0
KSW1 161155Z 19008KT 05/M00 A3018 RMK A01 T00501003  RH  069%=      5-min Rain = 0
KSW1 161156Z 18008KT 05/M00 A3018 RMK A01 T00501003  RH  069%=      5-min Rain = 0
KSW1 161157Z 19008KT 05/M00 A3018 RMK A01 T00501002  RH  069%=      5-min Rain = 0
KSW1 161158Z 18008KT 05/M00 A3018 RMK A01 T00491003  RH  069%=      5-min Rain = 0
KSW1 161159Z 18008KT 05/M00 A3018 RMK A01 T00501002  RH  069%=      5-min Rain = 0
KSW1 161200Z 18008KT 05/M00 A3018 RMK A01 T00501002  RH  069%=      5-min Rain = 0
KSW1 161201Z 19008KT 05/M00 A3018 RMK A01 T00501003  RH  069%=      5-min Rain = 0
KSW1 161202Z 19008KT 05/M00 A3018 RMK A01 T00501003  RH  069%=      5-min Rain = 0
KSW1 161203Z 18008KT 05/M00 A3018 RMK A01 T00501003  RH  069%=      5-min Rain = 0
KSW1 161204Z 18008KT 05/M00 A3018 RMK A01 T00501002  RH  069%=      5-min Rain = 0
KSW1 161205Z 19009KT 05/M00 A3018 RMK A01 T00511003  RH  069%=      5-min Rain = 0
KSW1 161206Z 18008KT 05/M00 A3018 RMK A01 T00511002  RH  068%=      5-min Rain = 0
KSW1 161207Z 18009KT 05/M00 A3018 RMK A01 T00501003  RH  069%=      5-min Rain = 0
KSW1 161208Z 18009KT 05/M00 A3018 RMK A01 T00511002  RH  069%=      5-min Rain = 0
KSW1 161209Z 18009KT 05/M00 A3018 RMK A01 T00511002  RH  069%=      5-min Rain = 0
KSW1 161210Z 18009KT 05/M00 A3018 RMK A01 T00511002  RH  068%=      5-min Rain = 0
KSW1 161211Z 18009KT 05/M00 A3018 RMK A01 T00521002  RH  068%=      5-min Rain = 0
KSW1 161212Z 18009KT 05/M00 A3018 RMK A01 T00521002  RH  068%=      5-min Rain = 0
KSW1 161213Z 18009KT 05/M00 A3018 RMK A01 T00521002  RH  068%=      5-min Rain = 0
KSW1 161214Z 18008KT 05/M00 A3018 RMK A01 T00531002  RH  068%=      5-min Rain = 0
KSW1 161215Z 18009KT 05/M00 A3018 RMK A01 T00531002  RH  067%=      5-min Rain = 0
KSW1 161216Z 19009KT 05/M00 A3018 RMK A01 T00541002  RH  067%=      5-min Rain = 0
KSW1 161217Z 18009KT 05/M00 A3018 RMK A01 T00531002  RH  067%=      5-min Rain = 0
KSW1 161218Z 18009KT 05/M00 A3018 RMK A01 T00531002  RH  068%=      5-min Rain = 0
KSW1 161219Z 18009KT 05/M00 A3018 RMK A01 T00541002  RH  067%=      5-min Rain = 0
KSW1 161220Z 18009KT 05/M00 A3018 RMK A01 T00541002  RH  067%=      5-min Rain = 0
KSW1 161221Z 18010KT 05/M00 A3018 RMK A01 T00541001  RH  067%=      5-min Rain = 0
KSW1 161222Z 18009KT 06/M00 A3018 RMK A01 T00551001  RH  067%=      5-min Rain = 0
KSW1 161223Z 18009KT 06/M00 A3018 RMK A01 T00551001  RH  067%=      5-min Rain = 0
KSW1 161224Z 18010KT 06/M00 A3018 RMK A01 T00561001  RH  067%=      5-min Rain = 0
KSW1 161225Z 18008KT 06/M00 A3018 RMK A01 T00561001  RH  066%=      5-min Rain = 0
KSW1 161226Z 18009KT 06/M00 A3018 RMK A01 T00571001  RH  066%=      5-min Rain = 0
KSW1 161227Z 18010KT 06/M00 A3018 RMK A01 T00571001  RH  066%=      5-min Rain = 0
KSW1 161228Z 18009KT 06/M00 A3018 RMK A01 T00571001  RH  066%=      5-min Rain = 0
KSW1 161229Z 18009KT 06/M00 A3018 RMK A01 T00571001  RH  066%=      5-min Rain = 0
KSW1 161230Z 19009KT 06/M00 A3018 RMK A01 T00571001  RH  066%=      5-min Rain = 0
KSW1 161231Z 18009KT 06/M00 A3018 RMK A01 T00571001  RH  066%=      5-min Rain = 0
KSW1 161232Z 18009KT 06/M00 A3018 RMK A01 T00581001  RH  066%=      5-min Rain = 0
KSW1 161233Z 18009KT 06/M00 A3018 RMK A01 T00581001  RH  066%=      5-min Rain = 0
KSW1 161234Z 18010KT 06/M00 A3018 RMK A01 T00581001  RH  066%=      5-min Rain = 0
KSW1 161235Z 18009KT 06/M00 A3018 RMK A01 T00581001  RH  066%=      5-min Rain = 0
KSW1 161236Z 18009KT 06/M00 A3018 RMK A01 T00581001  RH  066%=      5-min Rain = 0
KSW1 161237Z 18010KT 06/M00 A3018 RMK A01 T00581001  RH  066%=      5-min Rain = 0
KSW1 161238Z 18009KT 06/M00 A3018 RMK A01 T00581002  RH  066%=      5-min Rain = 0
KSW1 161239Z 18009KT 06/M00 A3018 RMK A01 T00581002  RH  065%=      5-min Rain = 0
KSW1 161240Z 18009KT 06/M00 A3018 RMK A01 T00581002  RH  065%=      5-min Rain = 0
KSW1 161241Z 18009KT 06/M00 A3018 RMK A01 T00581001  RH  066%=      5-min Rain = 0
KSW1 161242Z 19010KT 06/M00 A3018 RMK A01 T00571002  RH  066%=      5-min Rain = 0
KSW1 161243Z 18009KT 06/M00 A3018 RMK A01 T00571002  RH  066%=      5-min Rain = 0
KSW1 161244Z 19010KT 06/M00 A3018 RMK A01 T00571002  RH  066%=      5-min Rain = 0
KSW1 161245Z 19009KT 06/M00 A3018 RMK A01 T00571002  RH  066%=      5-min Rain = 0
KSW1 161246Z 19009KT 06/M00 A3018 RMK A01 T00571002  RH  066%=      5-min Rain = 0
KSW1 161247Z 18009KT 06/M00 A3018 RMK A01 T00571002  RH  066%=      5-min Rain = 0
KSW1 161248Z 19008KT 06/M00 A3018 RMK A01 T00571002  RH  066%=      5-min Rain = 0
KSW1 161249Z 18008KT 06/M00 A3018 RMK A01 T00561002  RH  066%=      5-min Rain = 0
KSW1 161250Z 18008KT 06/M00 A3018 RMK A01 T00561002  RH  066%=      5-min Rain = 0
KSW1 161251Z 18007KT 06/M00 A3018 RMK A01 T00551002  RH  067%=      5-min Rain = 0
KSW1 161252Z 18007KT 05/M00 A3018 RMK A01 T00541002  RH  067%=      5-min Rain = 0
KSW1 161253Z 18006KT 05/M00 A3018 RMK A01 T00531003  RH  067%=      5-min Rain = 0
KSW1 161254Z 18007KT 05/M00 A3018 RMK A01 T00531003  RH  068%=      5-min Rain = 0
KSW1 161255Z 18007KT 05/M00 A3018 RMK A01 T00521003  RH  068%=      5-min Rain = 0
KSW1 161256Z 18007KT 05/M00 A3018 RMK A01 T00511003  RH  068%=      5-min Rain = 0
KSW1 161257Z 18007KT 05/M00 A3018 RMK A01 T00511003  RH  068%=      5-min Rain = 0
KSW1 161258Z 18007KT 05/M00 A3018 RMK A01 T00501003  RH  069%=      5-min Rain = 0
KSW1 161259Z 18007KT 05/M00 A3018 RMK A01 T00491003  RH  069%=      5-min Rain = 0
KSW1 161300Z 18007KT 05/M00 A3018 RMK A01 T00491003  RH  069%=      5-min Rain = 0
KSW1 161301Z 18007KT 05/M00 A3018 RMK A01 T00491003  RH  069%=      5-min Rain = 0
KSW1 161302Z 18007KT 05/M00 A3018 RMK A01 T00481003  RH  069%=      5-min Rain = 0
KSW1 161303Z 18007KT 05/M00 A3018 RMK A01 T00481003  RH  070%=      5-min Rain = 0
KSW1 161304Z 18006KT 05/M00 A3018 RMK A01 T00481003  RH  070%=      5-min Rain = 0
KSW1 161305Z 18006KT 05/M00 A3018 RMK A01 T00481003  RH  070%=      5-min Rain = 0
KSW1 161306Z 18007KT 05/M00 A3018 RMK A01 T00481002  RH  070%=      5-min Rain = 0
KSW1 161307Z 18006KT 05/M00 A3018 RMK A01 T00481003  RH  070%=      5-min Rain = 0
KSW1 161308Z 18006KT 05/M00 A3018 RMK A01 T00471003  RH  070%=      5-min Rain = 0
KSW1 161309Z 18006KT 05/M00 A3018 RMK A01 T00471003  RH  070%=      5-min Rain = 0
KSW1 161310Z 18006KT 05/M00 A3018 RMK A01 T00471003  RH  070%=      5-min Rain = 0
KSW1 161311Z 18006KT 05/M00 A3018 RMK A01 T00471002  RH  071%=      5-min Rain = 0
KSW1 161312Z 18007KT 05/M00 A3018 RMK A01 T00461002  RH  071%=      5-min Rain = 0
KSW1 161313Z 18007KT 05/M00 A3018 RMK A01 T00471002  RH  071%=      5-min Rain = 0
KSW1 161314Z 18008KT 05/M00 A3018 RMK A01 T00471002  RH  070%=      5-min Rain = 0
KSW1 161315Z 18007KT 05/M00 A3018 RMK A01 T00481002  RH  070%=      5-min Rain = 0
KSW1 161316Z 18007KT 05/M00 A3018 RMK A01 T00481002  RH  070%=      5-min Rain = 0
KSW1 161317Z 18008KT 05/M00 A3018 RMK A01 T00491002  RH  070%=      5-min Rain = 0
KSW1 161318Z 18008KT 05/M00 A3018 RMK A01 T00491002  RH  070%=      5-min Rain = 0
KSW1 161319Z 18007KT 05/M00 A3018 RMK A01 T00491002  RH  069%=      5-min Rain = 0
KSW1 161320Z 17007KT 05/M00 A3018 RMK A01 T00501002  RH  069%=      5-min Rain = 0
KSW1 161321Z 18008KT 05/M00 A3018 RMK A01 T00501001  RH  069%=      5-min Rain = 0
KSW1 161322Z 18008KT 05/M00 A3018 RMK A01 T00511001  RH  069%=      5-min Rain = 0
KSW1 161323Z 17008KT 05/M00 A3018 RMK A01 T00521001  RH  069%=      5-min Rain = 0
KSW1 161324Z 17008KT 05/M00 A3018 RMK A01 T00521001  RH  069%=      5-min Rain = 0
KSW1 161325Z 18008KT 05/M00 A3018 RMK A01 T00521001  RH  069%=      5-min Rain = 0
KSW1 161326Z 18009KT 05/00 A3018 RMK A01 T005200-0  RH  069%=      5-min Rain = 0
KSW1 161327Z 18009KT 05/00 A3018 RMK A01 T005200-0  RH  069%=      5-min Rain = 0
KSW1 161328Z 18009KT 05/M00 A3018 RMK A01 T00531001  RH  068%=      5-min Rain = 0
KSW1 161329Z 18009KT 05/M00 A3018 RMK A01 T00541001  RH  068%=      5-min Rain = 0
KSW1 161330Z 18008KT 05/00 A3018 RMK A01 T005400-0  RH  068%=      5-min Rain = 0
KSW1 161331Z 18008KT 05/00 A3018 RMK A01 T005400-0  RH  068%=      5-min Rain = 0
KSW1 161332Z 18008KT 05/00 A3018 RMK A01 T00540000  RH  068%=      5-min Rain = 0
KSW1 161333Z 18010KT 05/00 A3018 RMK A01 T00540000  RH  068%=      5-min Rain = 0
KSW1 161334Z 18009KT 06/00 A3018 RMK A01 T00550000  RH  068%=      5-min Rain = 0
KSW1 161335Z 18009KT 06/00 A3018 RMK A01 T00560000  RH  068%=      5-min Rain = 0
KSW1 161336Z 18009KT 06/00 A3018 RMK A01 T00560001  RH  067%=      5-min Rain = 0
KSW1 161337Z 18008KT 06/00 A3018 RMK A01 T00560001  RH  067%=      5-min Rain = 0
KSW1 161338Z 18009KT 06/00 A3018 RMK A01 T00570001  RH  067%=      5-min Rain = 0
KSW1 161339Z 18008KT 06/00 A3018 RMK A01 T00580002  RH  067%=      5-min Rain = 0
KSW1 161340Z 18009KT 06/00 A3018 RMK A01 T00580002  RH  067%=      5-min Rain = 0
KSW1 161341Z 18009KT 06/00 A3018 RMK A01 T00590002  RH  067%=      5-min Rain = 0
KSW1 161342Z 18010KT 06/00 A3018 RMK A01 T00600002  RH  066%=      5-min Rain = 0
KSW1 161343Z 18009KT 06/00 A3018 RMK A01 T00620002  RH  065%=      5-min Rain = 0
KSW1 161344Z 18010KT 06/00 A3018 RMK A01 T00630002  RH  065%=      5-min Rain = 0
KSW1 161345Z 18009KT 06/00 A3018 RMK A01 T00630002  RH  065%=      5-min Rain = 0
KSW1 161346Z 18008KT 06/00 A3018 RMK A01 T00630003  RH  065%=      5-min Rain = 0
KSW1 161347Z 18010KT 06/00 A3018 RMK A01 T00630003  RH  065%=      5-min Rain = 0
KSW1 161348Z 18009KT 06/00 A3018 RMK A01 T00640002  RH  065%=      5-min Rain = 0
KSW1 161349Z 18010KT 07/00 A3018 RMK A01 T00650003  RH  064%=      5-min Rain = 0
KSW1 161350Z 18009KT 07/00 A3018 RMK A01 T00660003  RH  064%=      5-min Rain = 0
KSW1 161351Z 18009KT 07/00 A3018 RMK A01 T00660003  RH  064%=      5-min Rain = 0
KSW1 161352Z 18010KT 07/00 A3018 RMK A01 T00660004  RH  064%=      5-min Rain = 0
KSW1 161353Z 18010KT 07/00 A3018 RMK A01 T00670003  RH  064%=      5-min Rain = 0
KSW1 161354Z 18009KT 07/00 A3018 RMK A01 T00680003  RH  063%=      5-min Rain = 0
KSW1 161355Z 18011KT 07/00 A3018 RMK A01 T00690003  RH  063%=      5-min Rain = 0
KSW1 161356Z 18010KT 07/00 A3018 RMK A01 T00700003  RH  063%=      5-min Rain = 0
KSW1 161357Z 18011KT 07/00 A3018 RMK A01 T00700003  RH  062%=      5-min Rain = 0
KSW1 161358Z 18010KT 07/00 A3018 RMK A01 T00710003  RH  062%=      5-min Rain = 0
KSW1 161359Z 18011KT 07/00 A3018 RMK A01 T00720004  RH  062%=      5-min Rain = 0
KSW1 161400Z 18011KT 07/00 A3018 RMK A01 T00720003  RH  061%=      5-min Rain = 0
KSW1 161401Z 18012KT 07/00 A3018 RMK A01 T00730004  RH  061%=      5-min Rain = 0
KSW1 161402Z 18010KT 07/00 A3018 RMK A01 T00740004  RH  061%=      5-min Rain = 0
KSW1 161403Z 18012KT 07/00 A3018 RMK A01 T00740004  RH  061%=      5-min Rain = 0
KSW1 161404Z 18012KT 08/00 A3018 RMK A01 T00750004  RH  060%=      5-min Rain = 0
KSW1 161405Z 18011KT 08/00 A3018 RMK A01 T00760004  RH  060%=      5-min Rain = 0
KSW1 161406Z 18011KT 08/01 A3018 RMK A01 T00760005  RH  060%=      5-min Rain = 0
KSW1 161407Z 18013KT 08/00 A3018 RMK A01 T00770004  RH  060%=      5-min Rain = 0
KSW1 161408Z 18012KT 08/00 A3018 RMK A01 T00770004  RH  060%=      5-min Rain = 0
KSW1 161409Z 18012KT 08/00 A3018 RMK A01 T00780004  RH  060%=      5-min Rain = 0
KSW1 161410Z 18012KT 08/01 A3018 RMK A01 T00780005  RH  060%=      5-min Rain = 0
KSW1 161411Z 18012KT 08/01 A3018 RMK A01 T00780005  RH  060%=      5-min Rain = 0
KSW1 161412Z 18013KT 08/01 A3018 RMK A01 T00790005  RH  059%=      5-min Rain = 0
KSW1 161413Z 18011KT 08/01 A3018 RMK A01 T00800005  RH  059%=      5-min Rain = 0
KSW1 161414Z 18013KT 08/01 A3018 RMK A01 T00800005  RH  059%=      5-min Rain = 0
KSW1 161415Z 18013KT 08/01 A3018 RMK A01 T00800005  RH  059%=      5-min Rain = 0
KSW1 161416Z 18013KT 08/00 A3018 RMK A01 T00800004  RH  059%=      5-min Rain = 0
KSW1 161417Z 18012KT 08/01 A3018 RMK A01 T00800005  RH  059%=      5-min Rain = 0
KSW1 161418Z 18013KT 08/01 A3018 RMK A01 T00800005  RH  059%=      5-min Rain = 0
KSW1 161419Z 18011KT 08/01 A3018 RMK A01 T00800005  RH  059%=      5-min Rain = 0
KSW1 161420Z 18013KT 08/01 A3018 RMK A01 T00810005  RH  059%=      5-min Rain = 0
KSW1 161421Z 19013KT 08/01 A3018 RMK A01 T00810005  RH  059%=      5-min Rain = 0
KSW1 161422Z 18014KT 08/01 A3018 RMK A01 T00810005  RH  059%=      5-min Rain = 0
KSW1 161423Z 19010KT 08/01 A3018 RMK A01 T00820006  RH  059%=      5-min Rain = 0
KSW1 161424Z 19011KT 08/01 A3018 RMK A01 T00830007  RH  059%=      5-min Rain = 0
KSW1 161425Z 19012KT 08/01 A3018 RMK A01 T00830006  RH  059%=      5-min Rain = 0
KSW1 161426Z 19010KT 08/01 A3018 RMK A01 T00830007  RH  059%=      5-min Rain = 0
KSW1 161427Z 19012KT 08/01 A3018 RMK A01 T00840007  RH  059%=      5-min Rain = 0
KSW1 161428Z 19011KT 08/01 A3018 RMK A01 T00840007  RH  058%=      5-min Rain = 0
KSW1 161429Z 18011KT 08/01 A3018 RMK A01 T00840007  RH  058%=      5-min Rain = 0
KSW1 161430Z 19012KT 08/01 A3018 RMK A01 T00840007  RH  058%=      5-min Rain = 0
KSW1 161431Z 19011KT 09/01 A3018 RMK A01 T00850007  RH  058%=      5-min Rain = 0
KSW1 161432Z 18010KT 09/01 A3018 RMK A01 T00850008  RH  058%=      5-min Rain = 0
KSW1 161433Z 18011KT 09/01 A3018 RMK A01 T00860008  RH  058%=      5-min Rain = 0
KSW1 161434Z 18013KT 09/01 A3018 RMK A01 T00860007  RH  058%=      5-min Rain = 0
KSW1 161435Z 18010KT 09/01 A3018 RMK A01 T00860008  RH  058%=      5-min Rain = 0
KSW1 161436Z 19011KT 09/01 A3018 RMK A01 T00870009  RH  058%=      5-min Rain = 0
KSW1 161437Z 19011KT 09/01 A3018 RMK A01 T00880009  RH  058%=      5-min Rain = 0
KSW1 161438Z 19011KT 09/01 A3018 RMK A01 T00880008  RH  057%=      5-min Rain = 0
KSW1 161439Z 18010KT 09/01 A3018 RMK A01 T00890010  RH  058%=      5-min Rain = 0
KSW1 161440Z 19011KT 09/01 A3018 RMK A01 T00900009  RH  057%=      5-min Rain = 0
KSW1 161441Z 18009KT 09/01 A3018 RMK A01 T00900010  RH  057%=      5-min Rain = 0
KSW1 161442Z 19011KT 09/01 A3018 RMK A01 T00900010  RH  057%=      5-min Rain = 0
KSW1 161443Z 19012KT 09/01 A3018 RMK A01 T00910010  RH  057%=      5-min Rain = 0
KSW1 161444Z 19011KT 09/01 A3018 RMK A01 T00920009  RH  056%=      5-min Rain = 0
KSW1 161445Z 19012KT 09/01 A3018 RMK A01 T00930010  RH  056%=      5-min Rain = 0
KSW1 161446Z 18012KT 09/01 A3018 RMK A01 T00930009  RH  056%=      5-min Rain = 0
KSW1 161447Z 18015KT 09/01 A3018 RMK A01 T00940009  RH  055%=      5-min Rain = 0
KSW1 161448Z 19014KT 09/01 A3018 RMK A01 T00940008  RH  055%=      5-min Rain = 0
KSW1 161449Z 19013KT 10/01 A3018 RMK A01 T00950008  RH  055%=      5-min Rain = 0
KSW1 161450Z 19013KT 10/01 A3018 RMK A01 T00950010  RH  055%=      5-min Rain = 0
KSW1 161451Z 19013KT 10/01 A3018 RMK A01 T00960009  RH  055%=      5-min Rain = 0
KSW1 161452Z 19013KT 10/01 A3018 RMK A01 T00950009  RH  055%=      5-min Rain = 0
KSW1 161453Z 19011KT 10/01 A3018 RMK A01 T00960010  RH  055%=      5-min Rain = 0
KSW1 161454Z 18016KT 10/01 A3018 RMK A01 T00960010  RH  055%=      5-min Rain = 0
KSW1 161455Z 19014KT 10/01 A3018 RMK A01 T00970009  RH  054%=      5-min Rain = 0
KSW1 161456Z 19012KT 10/01 A3018 RMK A01 T00960010  RH  055%=      5-min Rain = 0
KSW1 161457Z 19015KT 10/01 A3018 RMK A01 T00970010  RH  054%=      5-min Rain = 0
KSW1 161458Z 19015KT 10/01 A3018 RMK A01 T00970008  RH  054%=      5-min Rain = 0
KSW1 161459Z 19014KT 10/01 A3018 RMK A01 T00970009  RH  054%=      5-min Rain = 0
KSW1 161500Z 20013KT 10/01 A3018 RMK A01 T00970009  RH  054%=      5-min Rain = 0
KSW1 161501Z 19013KT 10/01 A3018 RMK A01 T00980009  RH  054%=      5-min Rain = 0
KSW1 161502Z 19012G18KT 10/01 A3018 RMK A01 T00980010  RH  054%=      5-min Rain = 0
KSW1 161503Z 18012KT 10/01 A3018 RMK A01 T00990011  RH  054%=      5-min Rain = 0
KSW1 161504Z 19014KT 10/01 A3018 RMK A01 T01010012  RH  054%=      5-min Rain = 0
KSW1 161505Z 19014KT 10/01 A3018 RMK A01 T01010010  RH  053%=      5-min Rain = 0
KSW1 161506Z 18013KT 10/01 A3018 RMK A01 T01010011  RH  054%=      5-min Rain = 0
KSW1 161507Z 18014KT 10/01 A3018 RMK A01 T01010010  RH  053%=      5-min Rain = 0
KSW1 161508Z 19013KT 10/01 A3018 RMK A01 T01010010  RH  053%=      5-min Rain = 0
KSW1 161509Z 19014KT 10/01 A3018 RMK A01 T01010010  RH  053%=      5-min Rain = 0
KSW1 161510Z 18015KT 10/01 A3018 RMK A01 T01010010  RH  053%=      5-min Rain = 0
KSW1 161511Z 18016KT 10/01 A3018 RMK A01 T01010011  RH  053%=      5-min Rain = 0
KSW1 161512Z 18016KT 10/01 A3018 RMK A01 T01010009  RH  053%=      5-min Rain = 0
KSW1 161513Z 18017KT 10/01 A3018 RMK A01 T01010010  RH  053%=      5-min Rain = 0
KSW1 161514Z 19015KT 10/01 A3018 RMK A01 T01000009  RH  053%=      5-min Rain = 0
KSW1 161515Z 19013KT 10/01 A3018 RMK A01 T01000010  RH  053%=      5-min Rain = 0
KSW1 161516Z 19013KT 10/01 A3018 RMK A01 T01010010  RH  053%=      5-min Rain = 0
KSW1 161517Z 19014KT 10/01 A3018 RMK A01 T01020010  RH  053%=      5-min Rain = 0
KSW1 161518Z 18015KT 10/01 A3018 RMK A01 T01010011  RH  053%=      5-min Rain = 0
KSW1 161519Z 18016KT 10/01 A3018 RMK A01 T01010010  RH  053%=      5-min Rain = 0
KSW1 161520Z 19015KT 10/01 A3018 RMK A01 T01000010  RH  053%=      5-min Rain = 0
KSW1 161521Z 19016KT 10/01 A3018 RMK A01 T01000009  RH  053%=      5-min Rain = 0
KSW1 161522Z 18018KT 10/01 A3018 RMK A01 T00990009  RH  054%=      5-min Rain = 0
KSW1 161523Z 19014KT 10/01 A3018 RMK A01 T00980010  RH  054%=      5-min Rain = 0
KSW1 161524Z 18014KT 10/01 A3018 RMK A01 T00980010  RH  054%=      5-min Rain = 0
KSW1 161525Z 19014KT 10/01 A3018 RMK A01 T00990010  RH  054%=      5-min Rain = 0
KSW1 161526Z 19013KT 10/01 A3018 RMK A01 T00990011  RH  054%=      5-min Rain = 0
KSW1 161527Z 18014KT 10/01 A3017 RMK A01 T01000012  RH  054%=      5-min Rain = 0
KSW1 161528Z 19013KT 10/01 A3017 RMK A01 T01000012  RH  054%=      5-min Rain = 0
KSW1 161529Z 19014KT 10/01 A3017 RMK A01 T01010012  RH  054%=      5-min Rain = 0
KSW1 161530Z 19012KT 10/01 A3017 RMK A01 T01000012  RH  054%=      5-min Rain = 0
KSW1 161531Z 19012KT 10/01 A3017 RMK A01 T01010013  RH  054%=      5-min Rain = 0
KSW1 161532Z 19015KT 10/01 A3017 RMK A01 T01020012  RH  054%=      5-min Rain = 0
KSW1 161533Z 19013KT 10/01 A3018 RMK A01 T01020012  RH  054%=      5-min Rain = 0
KSW1 161534Z 18012KT 10/01 A3018 RMK A01 T01020013  RH  054%=      5-min Rain = 0
KSW1 161535Z 19012KT 10/02 A3017 RMK A01 T01030015  RH  054%=      5-min Rain = 0
KSW1 161536Z 18014KT 10/01 A3017 RMK A01 T01040013  RH  053%=      5-min Rain = 0
KSW1 161537Z 19014KT 10/01 A3017 RMK A01 T01040014  RH  054%=      5-min Rain = 0
KSW1 161538Z 19014KT 11/01 A3017 RMK A01 T01050013  RH  053%=      5-min Rain = 0
KSW1 161539Z 18013KT 10/01 A3017 RMK A01 T01040014  RH  054%=      5-min Rain = 0
KSW1 161540Z 19012KT 11/02 A3017 RMK A01 T01050015  RH  054%=      5-min Rain = 0
KSW1 161541Z 18013KT 11/02 A3017 RMK A01 T01060016  RH  053%=      5-min Rain = 0
KSW1 161542Z 18013KT 11/02 A3017 RMK A01 T01070015  RH  053%=      5-min Rain = 0
KSW1 161543Z 19010G15KT 11/02 A3018 RMK A01 T01080019  RH  054%=      5-min Rain = 0
KSW1 161544Z 20013KT 11/02 A3017 RMK A01 T01110018  RH  053%=      5-min Rain = 0
KSW1 161545Z 19013KT 11/02 A3017 RMK A01 T01110017  RH  052%=      5-min Rain = 0
KSW1 161546Z 19014KT 11/02 A3017 RMK A01 T01110016  RH  052%=      5-min Rain = 0
KSW1 161547Z 19011KT 11/02 A3017 RMK A01 T01100017  RH  053%=      5-min Rain = 0
KSW1 161548Z 18015KT 11/02 A3017 RMK A01 T01110018  RH  053%=      5-min Rain = 0
KSW1 161549Z 19014KT 11/02 A3017 RMK A01 T01110017  RH  052%=      5-min Rain = 0
KSW1 161550Z 19013KT 11/02 A3017 RMK A01 T01120017  RH  052%=      5-min Rain = 0
KSW1 161551Z 18013KT 11/02 A3017 RMK A01 T01110017  RH  052%=      5-min Rain = 0
KSW1 161552Z 18015KT 11/02 A3017 RMK A01 T01120018  RH  052%=      5-min Rain = 0
KSW1 161553Z 18012KT 11/02 A3017 RMK A01 T01120018  RH  052%=      5-min Rain = 0
KSW1 161554Z 19015KT 11/02 A3017 RMK A01 T01130018  RH  052%=      5-min Rain = 0
KSW1 161555Z 19013KT 11/02 A3017 RMK A01 T01130017  RH  052%=      5-min Rain = 0
KSW1 161556Z 18014KT 11/02 A3017 RMK A01 T01130019  RH  053%=      5-min Rain = 0
KSW1 161557Z 18014KT 11/02 A3017 RMK A01 T01140020  RH  052%=      5-min Rain = 0
KSW1 161558Z 18013KT 12/02 A3017 RMK A01 T01150020  RH  052%=      5-min Rain = 0
KSW1 161559Z 18011KT 12/02 A3017 RMK A01 T01160022  RH  052%=      5-min Rain = 0
KSW1 161600Z 19012KT 12/02 A3017 RMK A01 T01180022  RH  052%=      5-min Rain = 0
KSW1 161601Z 20013KT 12/02 A3017 RMK A01 T01180021  RH  051%=      5-min Rain = 0
KSW1 161602Z 18014KT 12/02 A3017 RMK A01 T01180021  RH  051%=      5-min Rain = 0
KSW1 161603Z 19014KT 12/02 A3017 RMK A01 T01170020  RH  051%=      5-min Rain = 0
KSW1 161604Z 18013KT 12/02 A3017 RMK A01 T01160020  RH  051%=      5-min Rain = 0
KSW1 161605Z 18014KT 12/02 A3017 RMK A01 T01160021  RH  052%=      5-min Rain = 0
KSW1 161606Z 18016KT 12/02 A3017 RMK A01 T01160021  RH  052%=      5-min Rain = 0
KSW1 161607Z 18014KT 12/02 A3016 RMK A01 T01170021  RH  052%=      5-min Rain = 0
KSW1 161608Z 19013KT 12/02 A3017 RMK A01 T01160021  RH  052%=      5-min Rain = 0
KSW1 161609Z 19016KT 12/02 A3016 RMK A01 T01170021  RH  052%=      5-min Rain = 0
KSW1 161610Z 19014G19KT 12/02 A3016 RMK A01 T01170021  RH  052%=      5-min Rain = 0
KSW1 161611Z 18015KT 12/02 A3016 RMK A01 T01170022  RH  052%=      5-min Rain = 0
KSW1 161612Z 19015KT 12/02 A3016 RMK A01 T01170022  RH  052%=      5-min Rain = 0
KSW1 161613Z 19016KT 12/02 A3016 RMK A01 T01170021  RH  052%=      5-min Rain = 0
KSW1 161614Z 19015KT 12/02 A3016 RMK A01 T01160021  RH  052%=      5-min Rain = 0
KSW1 161615Z 18016KT 12/02 A3016 RMK A01 T01160022  RH  052%=      5-min Rain = 0
KSW1 161616Z 19015KT 12/02 A3016 RMK A01 T01170021  RH  052%=      5-min Rain = 0
KSW1 161617Z 20015KT 12/02 A3016 RMK A01 T01180022  RH  052%=      5-min Rain = 0
KSW1 161618Z 20014KT 12/02 A3016 RMK A01 T01170022  RH  052%=      5-min Rain = 0
KSW1 161619Z 20014KT 12/02 A3016 RMK A01 T01180023  RH  052%=      5-min Rain = 0
KSW1 161620Z 20013KT 12/02 A3016 RMK A01 T01180022  RH  052%=      5-min Rain = 0
KSW1 161621Z 20014KT 12/02 A3016 RMK A01 T01180022  RH  052%=      5-min Rain = 0
KSW1 161622Z 19012KT 12/02 A3016 RMK A01 T01190023  RH  052%=      5-min Rain = 0
KSW1 161623Z 19014KT 12/02 A3016 RMK A01 T01200023  RH  051%=      5-min Rain = 0
KSW1 161624Z 19014KT 12/02 A3016 RMK A01 T01200022  RH  051%=      5-min Rain = 0
KSW1 161625Z 19015KT 12/02 A3016 RMK A01 T01200023  RH  051%=      5-min Rain = 0
KSW1 161626Z 19015KT 12/02 A3016 RMK A01 T01200023  RH  051%=      5-min Rain = 0
KSW1 161627Z 20014KT 12/02 A3016 RMK A01 T01210022  RH  051%=      5-min Rain = 0
KSW1 161628Z 20012KT 12/03 A3016 RMK A01 T01210025  RH  052%=      5-min Rain = 0
KSW1 161629Z 18012KT 12/03 A3016 RMK A01 T01240025  RH  051%=      5-min Rain = 0
KSW1 161630Z 19013KT 13/02 A3016 RMK A01 T01250024  RH  050%=      5-min Rain = 0
KSW1 161631Z 18013KT 13/03 A3016 RMK A01 T01260025  RH  050%=      5-min Rain = 0
KSW1 161632Z 19012KT 13/03 A3016 RMK A01 T01270025  RH  050%=      5-min Rain = 0
KSW1 161633Z 18015KT 13/03 A3016 RMK A01 T01280025  RH  050%=      5-min Rain = 0
KSW1 161634Z 19014KT 13/02 A3016 RMK A01 T01280024  RH  049%=      5-min Rain = 0
KSW1 161635Z 19014KT 13/03 A3016 RMK A01 T01270025  RH  050%=      5-min Rain = 0
KSW1 161636Z 19016KT 13/02 A3016 RMK A01 T01280024  RH  049%=      5-min Rain = 0
KSW1 161637Z 19015KT 13/02 A3016 RMK A01 T01280024  RH  049%=      5-min Rain = 0
KSW1 161638Z 20013KT 13/02 A3016 RMK A01 T01270024  RH  049%=      5-min Rain = 0
KSW1 161639Z 19013KT 13/02 A3016 RMK A01 T01270024  RH  049%=      5-min Rain = 0
KSW1 161640Z 19014KT 13/03 A3016 RMK A01 T01290025  RH  049%=      5-min Rain = 0
KSW1 161641Z 19012KT 13/02 A3015 RMK A01 T01300024  RH  049%=      5-min Rain = 0
KSW1 161642Z 19011KT 13/03 A3016 RMK A01 T01290025  RH  049%=      5-min Rain = 0
KSW1 161643Z 19012KT 13/03 A3015 RMK A01 T01310027  RH  049%=      5-min Rain = 0
KSW1 161644Z 19012KT 13/03 A3015 RMK A01 T01330026  RH  048%=      5-min Rain = 0
KSW1 161645Z 17012KT 13/03 A3015 RMK A01 T01330026  RH  048%=      5-min Rain = 0
KSW1 161646Z 19014KT 14/03 A3015 RMK A01 T01350028  RH  048%=      5-min Rain = 0
KSW1 161647Z 19014KT 14/03 A3015 RMK A01 T01350025  RH  047%=      5-min Rain = 0
KSW1 161648Z 18012KT 13/03 A3015 RMK A01 T01340027  RH  048%=      5-min Rain = 0
KSW1 161649Z 19012KT 14/03 A3015 RMK A01 T01360028  RH  048%=      5-min Rain = 0
KSW1 161650Z 19011KT 14/03 A3015 RMK A01 T01370027  RH  048%=      5-min Rain = 0
KSW1 161651Z 19011KT 14/03 A3015 RMK A01 T01380029  RH  048%=      5-min Rain = 0
KSW1 161652Z 19013KT 14/03 A3015 RMK A01 T01390028  RH  047%=      5-min Rain = 0
KSW1 161653Z 18015KT 14/03 A3015 RMK A01 T01390027  RH  047%=      5-min Rain = 0
KSW1 161654Z 19014KT 14/03 A3015 RMK A01 T01380027  RH  047%=      5-min Rain = 0
KSW1 161655Z 20012KT 14/03 A3015 RMK A01 T01380026  RH  047%=      5-min Rain = 0
KSW1 161656Z 19010KT 14/03 A3015 RMK A01 T01390029  RH  047%=      5-min Rain = 0
KSW1 161657Z 18013KT 14/03 A3015 RMK A01 T01400027  RH  046%=      5-min Rain = 0
KSW1 161658Z 18014KT 14/03 A3015 RMK A01 T01400027  RH  047%=      5-min Rain = 0
KSW1 161659Z 18014KT 14/03 A3015 RMK A01 T01400027  RH  046%=      5-min Rain = 0
KSW1 161700Z 18012KT 14/03 A3015 RMK A01 T01390029  RH  047%=      5-min Rain = 0
KSW1 161701Z 18014KT 14/03 A3015 RMK A01 T01400027  RH  047%=      5-min Rain = 0
KSW1 161702Z 19015KT 14/03 A3015 RMK A01 T01400028  RH  047%=      5-min Rain = 0
KSW1 161703Z 19013KT 14/03 A3014 RMK A01 T01400026  RH  046%=      5-min Rain = 0
KSW1 161704Z 18010G15KT 14/03 A3015 RMK A01 T01390028  RH  047%=      5-min Rain = 0
KSW1 161705Z 18014KT 14/03 A3014 RMK A01 T01410028  RH  047%=      5-min Rain = 0
KSW1 161706Z 19013KT 14/03 A3015 RMK A01 T01410027  RH  046%=      5-min Rain = 0
KSW1 161707Z 19012KT 14/03 A3015 RMK A01 T01390027  RH  047%=      5-min Rain = 0
KSW1 161708Z 19014KT 14/03 A3014 RMK A01 T01390027  RH  047%=      5-min Rain = 0
KSW1 161709Z 19014KT 14/03 A3015 RMK A01 T01390027  RH  047%=      5-min Rain = 0
KSW1 161710Z 19013KT 14/03 A3014 RMK A01 T01390028  RH  047%=      5-min Rain = 0
KSW1 161711Z 19013KT 14/03 A3014 RMK A01 T01410029  RH  047%=      5-min Rain = 0
KSW1 161712Z 19012KT 14/03 A3014 RMK A01 T01420029  RH  046%=      5-min Rain = 0
KSW1 161713Z 19014KT 14/03 A3014 RMK A01 T01420027  RH  046%=      5-min Rain = 0
KSW1 161714Z 19012KT 14/03 A3014 RMK A01 T01400028  RH  047%=      5-min Rain = 0
KSW1 161715Z 19016KT 14/03 A3014 RMK A01 T01400027  RH  047%=      5-min Rain = 0
KSW1 161716Z 19015KT 14/03 A3014 RMK A01 T01400027  RH  046%=      5-min Rain = 0
KSW1 161717Z 19012KT 14/03 A3014 RMK A01 T01400028  RH  047%=      5-min Rain = 0
KSW1 161718Z 19013KT 14/03 A3014 RMK A01 T01420029  RH  047%=      5-min Rain = 0
KSW1 161719Z 19013KT 14/03 A3014 RMK A01 T01420028  RH  046%=      5-min Rain = 0
KSW1 161720Z 18014KT 14/03 A3014 RMK A01 T01430028  RH  046%=      5-min Rain = 0
KSW1 161721Z 17012KT 14/03 A3014 RMK A01 T01430028  RH  046%=      5-min Rain = 0
KSW1 161722Z 18014KT 14/03 A3014 RMK A01 T01440032  RH  047%=      5-min Rain = 0
KSW1 161723Z 18012KT 15/03 A3014 RMK A01 T01460031  RH  046%=      5-min Rain = 0
KSW1 161724Z 18015KT 15/03 A3014 RMK A01 T01480031  RH  046%=      5-min Rain = 0
KSW1 161725Z 18014KT 15/03 A3014 RMK A01 T01480030  RH  045%=      5-min Rain = 0
KSW1 161726Z 18012KT 15/03 A3014 RMK A01 T01480032  RH  046%=      5-min Rain = 0
KSW1 161727Z 17013KT 15/03 A3014 RMK A01 T01490032  RH  045%=      5-min Rain = 0
KSW1 161728Z 18013KT 15/03 A3014 RMK A01 T01500031  RH  045%=      5-min Rain = 0
KSW1 161729Z 18012KT 15/03 A3014 RMK A01 T01490031  RH  045%=      5-min Rain = 0
KSW1 161730Z 19013KT 15/03 A3013 RMK A01 T01500031  RH  045%=      5-min Rain = 0
KSW1 161731Z 20014KT 15/03 A3013 RMK A01 T01500032  RH  045%=      5-min Rain = 0
KSW1 161732Z 20012KT 15/03 A3013 RMK A01 T01500033  RH  045%=      5-min Rain = 0
KSW1 161733Z 20013KT 15/03 A3013 RMK A01 T01520032  RH  044%=      5-min Rain = 0
KSW1 161734Z 20013KT 15/03 A3013 RMK A01 T01500030  RH  044%=      5-min Rain = 0
KSW1 161735Z 18014KT 15/03 A3013 RMK A01 T01490030  RH  045%=      5-min Rain = 0
KSW1 161736Z 17015KT 15/03 A3013 RMK A01 T01490031  RH  045%=      5-min Rain = 0
KSW1 161737Z 18013KT 15/03 A3013 RMK A01 T01490031  RH  045%=      5-min Rain = 0
KSW1 161738Z 18011KT 15/03 A3013 RMK A01 T01500032  RH  045%=      5-min Rain = 0
KSW1 161739Z 18011KT 15/03 A3013 RMK A01 T01500032  RH  045%=      5-min Rain = 0
KSW1 161740Z 20012KT 15/03 A3013 RMK A01 T01520032  RH  045%=      5-min Rain = 0
KSW1 161741Z 18014KT 15/03 A3013 RMK A01 T01520032  RH  045%=      5-min Rain = 0
KSW1 161742Z 17010G15KT 15/03 A3013 RMK A01 T01510031  RH  044%=      5-min Rain = 0
KSW1 161743Z 18014KT 15/03 A3013 RMK A01 T01500032  RH  045%=      5-min Rain = 0
KSW1 161744Z 17012KT 15/03 A3013 RMK A01 T01510032  RH  045%=      5-min Rain = 0
KSW1 161745Z 19012KT 15/03 A3013 RMK A01 T01530034  RH  045%=      5-min Rain = 0
KSW1 161746Z 19014KT 15/03 A3013 RMK A01 T01540032  RH  044%=      5-min Rain = 0
KSW1 161747Z 18012KT 15/03 A3013 RMK A01 T01530032  RH  044%=      5-min Rain = 0
KSW1 161748Z 17012KT 15/03 A3013 RMK A01 T01530033  RH  045%=      5-min Rain = 0
KSW1 161749Z 19011KT 15/03 A3013 RMK A01 T01540032  RH  044%=      5-min Rain = 0
KSW1 161750Z 18012KT 15/03 A3013 RMK A01 T01540033  RH  044%=      5-min Rain = 0
KSW1 161751Z 18012KT 15/04 A3013 RMK A01 T01540035  RH  045%=      5-min Rain = 0
KSW1 161752Z 18013KT 15/03 A3013 RMK A01 T01540033  RH  044%=      5-min Rain = 0
KSW1 161753Z 17013KT 15/03 A3012 RMK A01 T01530033  RH  044%=      5-min Rain = 0
KSW1 161754Z 18014KT 15/03 A3012 RMK A01 T01520032  RH  045%=      5-min Rain = 0
KSW1 161755Z 19014KT 15/03 A3012 RMK A01 T01510032  RH  045%=      5-min Rain = 0
KSW1 161756Z 20011KT 15/03 A3012 RMK A01 T01500032  RH  045%=      5-min Rain = 0
KSW1 161757Z 18011KT 15/03 A3012 RMK A01 T01500032  RH  045%=      5-min Rain = 0
KSW1 161758Z 18013KT 15/03 A3012 RMK A01 T01510034  RH  045%=      5-min Rain = 0
KSW1 161759Z 17014KT 15/03 A3012 RMK A01 T01520033  RH  045%=      5-min Rain = 0
KSW1 161800Z 17014KT 15/03 A3012 RMK A01 T01520033  RH  045%=      5-min Rain = 0
KSW1 161801Z 18014KT 15/03 A3012 RMK A01 T01520034  RH  045%=      5-min Rain = 0
KSW1 161802Z 19012KT 15/03 A3012 RMK A01 T01530033  RH  045%=      5-min Rain = 0
KSW1 161803Z 19011KT 15/03 A3012 RMK A01 T01530032  RH  044%=      5-min Rain = 0
KSW1 161804Z 19012KT 15/03 A3012 RMK A01 T01520033  RH  045%=      5-min Rain = 0
KSW1 161805Z 19011KT 15/03 A3012 RMK A01 T01520032  RH  045%=      5-min Rain = 0
KSW1 161806Z 18012KT 15/04 A3012 RMK A01 T01530035  RH  045%=      5-min Rain = 0
KSW1 161807Z 18010KT 15/04 A3012 RMK A01 T01540035  RH  045%=      5-min Rain = 0
KSW1 161808Z 18013KT 16/04 A3011 RMK A01 T01550035  RH  044%=      5-min Rain = 0
KSW1 161809Z 17013KT 16/03 A3011 RMK A01 T01550034  RH  044%=      5-min Rain = 0
KSW1 161810Z 19012KT 16/03 A3011 RMK A01 T01550033  RH  044%=      5-min Rain = 0
KSW1 161811Z 19011KT 15/03 A3011 RMK A01 T01540033  RH  044%=      5-min Rain = 0
KSW1 161812Z 20012KT 16/04 A3011 RMK A01 T01550036  RH  045%=      5-min Rain = 0
KSW1 161813Z 19009KT 16/04 A3011 RMK A01 T01570037  RH  045%=      5-min Rain = 0
KSW1 161814Z 20012KT 16/04 A3011 RMK A01 T01590037  RH  044%=      5-min Rain = 0
KSW1 161815Z 19011KT 16/04 A3011 RMK A01 T01590035  RH  044%=      5-min Rain = 0
KSW1 161816Z 19011KT 16/04 A3011 RMK A01 T01570035  RH  044%=      5-min Rain = 0
KSW1 161817Z 19008KT 16/03 A3011 RMK A01 T01570034  RH  044%=      5-min Rain = 0
KSW1 161818Z 19008KT 16/04 A301 RMK A01 T01570037  RH  045%=      5-min Rain = 0
KSW1 161819Z 18010KT 16/04 A301 RMK A01 T01600038  RH  044%=      5-min Rain = 0
KSW1 161820Z 18012KT 16/04 A301 RMK A01 T01610037  RH  044%=      5-min Rain = 0
KSW1 161821Z 18012KT 16/04 A301 RMK A01 T01600036  RH  043%=      5-min Rain = 0
KSW1 161822Z 18012KT 16/04 A301 RMK A01 T01590036  RH  044%=      5-min Rain = 0
KSW1 161823Z 18009KT 16/04 A301 RMK A01 T01590036  RH  044%=      5-min Rain = 0
KSW1 161824Z 18010G16KT 16/04 A301 RMK A01 T01610039  RH  044%=      5-min Rain = 0
KSW1 161825Z 18014KT 16/04 A301 RMK A01 T01620037  RH  043%=      5-min Rain = 0
KSW1 161826Z 17011KT 16/04 A301 RMK A01 T01600036  RH  044%=      5-min Rain = 0
KSW1 161827Z 18012KT 16/04 A301 RMK A01 T01600037  RH  044%=      5-min Rain = 0
KSW1 161828Z 19013KT 16/04 A301 RMK A01 T01610037  RH  043%=      5-min Rain = 0
KSW1 161829Z 19009KT 16/04 A301 RMK A01 T01600037  RH  044%=      5-min Rain = 0
KSW1 161830Z 20008KT 16/04 A3009 RMK A01 T01610037  RH  043%=      5-min Rain = 0
KSW1 161831Z 20008G13KT 16/04 A3009 RMK A01 T01610037  RH  043%=      5-min Rain = 0
KSW1 161832Z 18013KT 16/04 A3009 RMK A01 T01610037  RH  043%=      5-min Rain = 0
KSW1 161833Z 19012KT 16/04 A3009 RMK A01 T01610037  RH  043%=      5-min Rain = 0
KSW1 161834Z 19010KT 16/04 A3009 RMK A01 T01610036  RH  043%=      5-min Rain = 0
KSW1 161835Z 18012KT 16/04 A3009 RMK A01 T01600037  RH  044%=      5-min Rain = 0
KSW1 161836Z 18012KT 16/04 A3009 RMK A01 T01600037  RH  044%=      5-min Rain = 0
KSW1 161837Z 18009KT 16/04 A3009 RMK A01 T01610039  RH  044%=      5-min Rain = 0
KSW1 161838Z 20011KT 16/04 A3009 RMK A01 T01640039  RH  043%=      5-min Rain = 0
KSW1 161839Z 19011KT 16/04 A3009 RMK A01 T01640038  RH  043%=      5-min Rain = 0
KSW1 161840Z 20010KT 16/04 A3009 RMK A01 T01640037  RH  043%=      5-min Rain = 0
KSW1 161841Z 20010KT 16/04 A3009 RMK A01 T01640037  RH  043%=      5-min Rain = 0
KSW1 161842Z 20008KT 17/04 A3009 RMK A01 T01650039  RH  043%=      5-min Rain = 0
KSW1 161843Z 21011KT 17/04 A3009 RMK A01 T01670038  RH  042%=      5-min Rain = 0
KSW1 161844Z 19010KT 17/04 A3009 RMK A01 T01670040  RH  043%=      5-min Rain = 0
KSW1 161845Z 17010KT 17/04 A3008 RMK A01 T01690040  RH  042%=      5-min Rain = 0
KSW1 161846Z 17014KT 17/04 A3008 RMK A01 T01700039  RH  042%=      5-min Rain = 0
KSW1 161847Z 17012KT 17/04 A3008 RMK A01 T01700039  RH  042%=      5-min Rain = 0
KSW1 161848Z 17011KT 17/04 A3008 RMK A01 T01700039  RH  042%=      5-min Rain = 0
KSW1 161849Z 18013KT 17/04 A3008 RMK A01 T01700038  RH  041%=      5-min Rain = 0
KSW1 161850Z 18010KT 17/04 A3008 RMK A01 T01690039  RH  042%=      5-min Rain = 0
KSW1 161851Z 20010KT 17/04 A3008 RMK A01 T01700040  RH  042%=      5-min Rain = 0
KSW1 161852Z 20009G14KT 17/04 A3008 RMK A01 T01720041  RH  042%=      5-min Rain = 0
KSW1 161853Z 19011KT 17/04 A3008 RMK A01 T01730041  RH  041%=      5-min Rain = 0
KSW1 161854Z 20011KT 17/04 A3008 RMK A01 T01720042  RH  042%=      5-min Rain = 0
KSW1 161855Z 20010KT 17/04 A3008 RMK A01 T01730040  RH  041%=      5-min Rain = 0
KSW1 161856Z 20009KT 17/04 A3008 RMK A01 T01710041  RH  042%=      5-min Rain = 0
KSW1 161857Z 18013KT 17/04 A3008 RMK A01 T01720041  RH  042%=      5-min Rain = 0
KSW1 161858Z 19014KT 17/04 A3007 RMK A01 T01730040  RH  041%=      5-min Rain = 0
KSW1 161859Z 17011KT 17/04 A3007 RMK A01 T01720041  RH  042%=      5-min Rain = 0
KSW1 161900Z 18010KT 17/04 A3007 RMK A01 T01740041  RH  041%=      5-min Rain = 0
KSW1 161901Z 18011KT 17/04 A3007 RMK A01 T01740040  RH  041%=      5-min Rain = 0
KSW1 161902Z 19010KT 17/04 A3007 RMK A01 T01740040  RH  041%=      5-min Rain = 0
KSW1 161903Z 19007KT 17/04 A3007 RMK A01 T01730041  RH  041%=      5-min Rain = 0
KSW1 161904Z 18012KT 18/04 A3007 RMK A01 T01750043  RH  041%=      5-min Rain = 0
KSW1 161905Z 17014KT 18/04 A3007 RMK A01 T01760042  RH  041%=      5-min Rain = 0
KSW1 161906Z 18012KT 17/04 A3007 RMK A01 T01740042  RH  042%=      5-min Rain = 0
KSW1 161907Z 19010KT 17/04 A3007 RMK A01 T01730042  RH  042%=      5-min Rain = 0
KSW1 161908Z 19011KT 17/04 A3007 RMK A01 T01730042  RH  042%=      5-min Rain = 0
KSW1 161909Z 19013KT 17/04 A3007 RMK A01 T01720041  RH  042%=      5-min Rain = 0
KSW1 161910Z 20012KT 17/04 A3007 RMK A01 T01720043  RH  042%=      5-min Rain = 0
KSW1 161911Z 19010KT 17/04 A3007 RMK A01 T01730043  RH  042%=      5-min Rain = 0
KSW1 161912Z 18011KT 17/04 A3007 RMK A01 T01740042  RH  042%=      5-min Rain = 0
KSW1 161913Z 18012KT 17/04 A3006 RMK A01 T01740042  RH  042%=      5-min Rain = 0
KSW1 161914Z 19012KT 17/04 A3006 RMK A01 T01730042  RH  042%=      5-min Rain = 0
KSW1 161915Z 18013KT 17/04 A3006 RMK A01 T01730044  RH  042%=      5-min Rain = 0
KSW1 161916Z 18015KT 17/04 A3006 RMK A01 T01730043  RH  042%=      5-min Rain = 0
KSW1 161917Z 18014KT 17/04 A3006 RMK A01 T01730044  RH  042%=      5-min Rain = 0
KSW1 161918Z 19013KT 17/04 A3006 RMK A01 T01730044  RH  042%=      5-min Rain = 0
KSW1 161919Z 20012KT 17/04 A3006 RMK A01 T01720044  RH  043%=      5-min Rain = 0
KSW1 161920Z 20013KT 17/04 A3006 RMK A01 T01720043  RH  042%=      5-min Rain = 0
KSW1 161921Z 20012KT 17/04 A3006 RMK A01 T01710043  RH  043%=      5-min Rain = 0
KSW1 161922Z 20012KT 17/04 A3006 RMK A01 T01720043  RH  042%=      5-min Rain = 0
KSW1 161923Z 20014KT 17/04 A3006 RMK A01 T01730043  RH  042%=      5-min Rain = 0
KSW1 161924Z 20013KT 17/04 A3006 RMK A01 T01730042  RH  042%=      5-min Rain = 0
KSW1 161925Z 20012KT 17/04 A3006 RMK A01 T01730043  RH  042%=      5-min Rain = 0
KSW1 161926Z 20011KT 17/04 A3006 RMK A01 T01730042  RH  042%=      5-min Rain = 0
KSW1 161927Z 18012KT 17/04 A3006 RMK A01 T01740044  RH  042%=      5-min Rain = 0
KSW1 161928Z 18012KT 18/04 A3006 RMK A01 T01760044  RH  042%=      5-min Rain = 0
KSW1 161929Z 17013KT 18/04 A3006 RMK A01 T01770044  RH  041%=      5-min Rain = 0
KSW1 161930Z 18012KT 18/04 A3006 RMK A01 T01770044  RH  041%=      5-min Rain = 0
KSW1 161931Z 19012KT 18/05 A3006 RMK A01 T01780045  RH  041%=      5-min Rain = 0
KSW1 161932Z 20008KT 18/05 A3006 RMK A01 T01790045  RH  041%=      5-min Rain = 0
KSW1 161933Z 20012KT 18/05 A3006 RMK A01 T01810045  RH  041%=      5-min Rain = 0
KSW1 161934Z 20012KT 18/04 A3005 RMK A01 T01810044  RH  040%=      5-min Rain = 0
KSW1 161935Z 20013KT 18/04 A3005 RMK A01 T01810044  RH  040%=      5-min Rain = 0
KSW1 161936Z 20012KT 18/04 A3005 RMK A01 T01810043  RH  040%=      5-min Rain = 0
KSW1 161937Z 19011G16KT 18/05 A3005 RMK A01 T01800045  RH  041%=      5-min Rain = 0
KSW1 161938Z 17014KT 18/05 A3005 RMK A01 T01830046  RH  040%=      5-min Rain = 0
KSW1 161939Z 18013KT 18/05 A3005 RMK A01 T01840045  RH  040%=      5-min Rain = 0
KSW1 161940Z 18014KT 18/04 A3005 RMK A01 T01830044  RH  040%=      5-min Rain = 0
KSW1 161941Z 18011KT 18/04 A3005 RMK A01 T01810043  RH  040%=      5-min Rain = 0
KSW1 161942Z 17012KT 18/05 A3005 RMK A01 T01810045  RH  040%=      5-min Rain = 0
KSW1 161943Z 18012KT 18/05 A3005 RMK A01 T01820046  RH  040%=      5-min Rain = 0
KSW1 161944Z 19011KT 19/05 A3005 RMK A01 T01850046  RH  040%=      5-min Rain = 0
KSW1 161945Z 19011KT 19/05 A3005 RMK A01 T01860045  RH  039%=      5-min Rain = 0
KSW1 161946Z 19012KT 19/04 A3005 RMK A01 T01860044  RH  039%=      5-min Rain = 0
KSW1 161947Z 18011KT 19/05 A3005 RMK A01 T01860047  RH  040%=      5-min Rain = 0
KSW1 161948Z 18012G17KT 19/05 A3005 RMK A01 T01890048  RH  039%=      5-min Rain = 0
KSW1 161949Z 18014KT 19/05 A3005 RMK A01 T01910047  RH  039%=      5-min Rain = 0
KSW1 161950Z 20014KT 19/04 A3005 RMK A01 T01900044  RH  038%=      5-min Rain = 0
KSW1 161951Z 19012KT 19/05 A3005 RMK A01 T01870046  RH  039%=      5-min Rain = 0
KSW1 161952Z 18016KT 19/05 A3005 RMK A01 T01880045  RH  039%=      5-min Rain = 0
KSW1 161953Z 18017KT 19/04 A3005 RMK A01 T01850042  RH  039%=      5-min Rain = 0
KSW1 161954Z 18014KT 18/04 A3005 RMK A01 T01820043  RH  040%=      5-min Rain = 0
KSW1 161955Z 18014KT 18/04 A3005 RMK A01 T01800043  RH  040%=      5-min Rain = 0
KSW1 161956Z 17014KT 18/04 A3005 RMK A01 T01800043  RH  040%=      5-min Rain = 0
KSW1 161957Z 18012KT 18/04 A3005 RMK A01 T01790044  RH  041%=      5-min Rain = 0
KSW1 161958Z 18013KT 18/04 A3005 RMK A01 T01790044  RH  041%=      5-min Rain = 0
KSW1 161959Z 18015KT 18/04 A3005 RMK A01 T01800044  RH  041%=      5-min Rain = 0
KSW1 162000Z 18014KT 18/04 A3005 RMK A01 T01810044  RH  040%=      5-min Rain = 0
KSW1 162001Z 19011KT 18/05 A3005 RMK A01 T01820045  RH  040%=      5-min Rain = 0
KSW1 162002Z 20013KT 18/04 A3005 RMK A01 T01830043  RH  039%=      5-min Rain = 0
KSW1 162003Z 19009KT 18/05 A3005 RMK A01 T01830045  RH  040%=      5-min Rain = 0
KSW1 162004Z 18008KT 19/05 A3004 RMK A01 T01860046  RH  040%=      5-min Rain = 0
KSW1 162005Z 18011KT 19/05 A3004 RMK A01 T01880046  RH  039%=      5-min Rain = 0
KSW1 162006Z 17013KT 19/04 A3004 RMK A01 T01880042  RH  038%=      5-min Rain = 0
KSW1 162007Z 17013KT 19/04 A3004 RMK A01 T01860043  RH  039%=      5-min Rain = 0
KSW1 162008Z 17010KT 19/04 A3004 RMK A01 T01850042  RH  039%=      5-min Rain = 0
KSW1 162009Z 18010KT 19/05 A3004 RMK A01 T01860045  RH  039%=      5-min Rain = 0
KSW1 162010Z 18012KT 19/05 A3004 RMK A01 T01900047  RH  039%=      5-min Rain = 0
KSW1 162011Z 17010KT 19/04 A3004 RMK A01 T01910044  RH  038%=      5-min Rain = 0
KSW1 162012Z 18010KT 19/05 A3004 RMK A01 T01910046  RH  038%=      5-min Rain = 0
KSW1 162013Z 18012KT 19/05 A3004 RMK A01 T01940046  RH  038%=      5-min Rain = 0
KSW1 162014Z 17011KT 19/04 A3004 RMK A01 T01940044  RH  037%=      5-min Rain = 0
KSW1 162015Z 19010KT 19/05 A3004 RMK A01 T01930045  RH  038%=      5-min Rain = 0
KSW1 162016Z 20011KT 20/05 A3004 RMK A01 T01950047  RH  038%=      5-min Rain = 0
KSW1 162017Z 18011KT 20/04 A3004 RMK A01 T01960044  RH  037%=      5-min Rain = 0
KSW1 162018Z 18015KT 19/05 A3004 RMK A01 T01940045  RH  037%=      5-min Rain = 0
KSW1 162019Z 18016KT 19/04 A3003 RMK A01 T01940044  RH  037%=      5-min Rain = 0
KSW1 162020Z 18013KT 19/04 A3004 RMK A01 T01930043  RH  037%=      5-min Rain = 0
KSW1 162021Z 18012KT 19/04 A3004 RMK A01 T01920044  RH  038%=      5-min Rain = 0
KSW1 162022Z 17010KT 19/04 A3004 RMK A01 T01910044  RH  038%=      5-min Rain = 0
KSW1 162023Z 17010KT 19/05 A3004 RMK A01 T01910045  RH  038%=      5-min Rain = 0
KSW1 162024Z 18014KT 19/04 A3003 RMK A01 T01930044  RH  038%=      5-min Rain = 0
KSW1 162025Z 19015KT 19/04 A3003 RMK A01 T01910042  RH  037%=      5-min Rain = 0
KSW1 162026Z 20014KT 19/04 A3004 RMK A01 T01870041  RH  038%=      5-min Rain = 0
KSW1 162027Z 19014KT 19/04 A3003 RMK A01 T01850041  RH  038%=      5-min Rain = 0
KSW1 162028Z 19012KT 18/04 A3003 RMK A01 T01840042  RH  039%=      5-min Rain = 0
KSW1 162029Z 19014KT 18/04 A3003 RMK A01 T01830041  RH  039%=      5-min Rain = 0
KSW1 162030Z 18015KT 18/04 A3003 RMK A01 T01820041  RH  039%=      5-min Rain = 0
KSW1 162031Z 18011KT 18/04 A3003 RMK A01 T01820043  RH  040%=      5-min Rain = 0
KSW1 162032Z 17014KT 19/05 A3003 RMK A01 T01850045  RH  039%=      5-min Rain = 0
KSW1 162033Z 17011KT 19/04 A3003 RMK A01 T01870042  RH  038%=      5-min Rain = 0
KSW1 162034Z 16014KT 19/04 A3003 RMK A01 T01900044  RH  038%=      5-min Rain = 0
KSW1 162035Z 17013KT 19/04 A3003 RMK A01 T01920043  RH  037%=      5-min Rain = 0
KSW1 162036Z 17012KT 19/04 A3003 RMK A01 T01920043  RH  037%=      5-min Rain = 0
KSW1 162037Z 18012KT 19/04 A3003 RMK A01 T01920044  RH  038%=      5-min Rain = 0
KSW1 162038Z 17013KT 19/05 A3003 RMK A01 T01920045  RH  038%=      5-min Rain = 0
KSW1 162039Z 18016KT 19/04 A3003 RMK A01 T01910043  RH  037%=      5-min Rain = 0
KSW1 162040Z 17012KT 19/04 A3003 RMK A01 T01870039  RH  037%=      5-min Rain = 0
KSW1 162041Z 17010KT 19/04 A3003 RMK A01 T01850042  RH  039%=      5-min Rain = 0
KSW1 162042Z 18012KT 19/04 A3003 RMK A01 T01870043  RH  039%=      5-min Rain = 0
KSW1 162043Z 18017KT 19/04 A3003 RMK A01 T01890043  RH  038%=      5-min Rain = 0
KSW1 162044Z 17013KT 19/04 A3003 RMK A01 T01890043  RH  038%=      5-min Rain = 0
KSW1 162045Z 18011KT 19/04 A3003 RMK A01 T01900043  RH  038%=      5-min Rain = 0
KSW1 162046Z 18012KT 19/04 A3003 RMK A01 T01900042  RH  038%=      5-min Rain = 0
KSW1 162047Z 18012G17KT 19/04 A3003 RMK A01 T01900044  RH  038%=      5-min Rain = 0
KSW1 162048Z 19013KT 19/04 A3003 RMK A01 T01920044  RH  038%=      5-min Rain = 0
KSW1 162049Z 19011KT 19/04 A3003 RMK A01 T01930044  RH  037%=      5-min Rain = 0
KSW1 162050Z 18015KT 19/05 A3003 RMK A01 T01940045  RH  037%=      5-min Rain = 0
KSW1 162051Z 19013KT 19/04 A3003 RMK A01 T01940042  RH  037%=      5-min Rain = 0
KSW1 162052Z 18010KT 19/04 A3003 RMK A01 T01910042  RH  037%=      5-min Rain = 0
KSW1 162053Z 17013KT 19/04 A3003 RMK A01 T01910043  RH  038%=      5-min Rain = 0
KSW1 162054Z 17013G20KT 19/04 A3003 RMK A01 T01920043  RH  038%=      5-min Rain = 0
KSW1 162055Z 18014KT 19/04 A3003 RMK A01 T01930044  RH  037%=      5-min Rain = 0
KSW1 162056Z 18016KT 19/04 A3003 RMK A01 T01930041  RH  037%=      5-min Rain = 0
KSW1 162057Z 19014KT 19/04 A3003 RMK A01 T01890040  RH  037%=      5-min Rain = 0
KSW1 162058Z 18015KT 19/04 A3003 RMK A01 T01880040  RH  038%=      5-min Rain = 0
KSW1 162059Z 18014KT 19/04 A3003 RMK A01 T01870041  RH  038%=      5-min Rain = 0
KSW1 162100Z 17013KT 19/04 A3003 RMK A01 T01870040  RH  038%=      5-min Rain = 0
KSW1 162101Z 18016KT 19/04 A3003 RMK A01 T01870041  RH  038%=      5-min Rain = 0
KSW1 162102Z 17013KT 19/04 A3003 RMK A01 T01870041  RH  038%=      5-min Rain = 0
KSW1 162103Z 17015KT 19/04 A3003 RMK A01 T01880042  RH  038%=      5-min Rain = 0
KSW1 162104Z 18010KT 19/04 A3003 RMK A01 T01890042  RH  038%=      5-min Rain = 0
KSW1 162105Z 19013KT 19/04 A3003 RMK A01 T01900041  RH  037%=      5-min Rain = 0
KSW1 162106Z 18009KT 19/04 A3002 RMK A01 T01880040  RH  037%=      5-min Rain = 0
KSW1 162107Z 18011KT 19/04 A3002 RMK A01 T01880041  RH  038%=      5-min Rain = 0
KSW1 162108Z 18009KT 19/04 A3002 RMK A01 T01870041  RH  038%=      5-min Rain = 0
KSW1 162109Z 18008KT 19/05 A3002 RMK A01 T01880045  RH  039%=      5-min Rain = 0
KSW1 162110Z 16008KT 19/05 A3002 RMK A01 T01910045  RH  038%=      5-min Rain = 0
KSW1 162111Z 16011KT 19/04 A3002 RMK A01 T01920041  RH  037%=      5-min Rain = 0
KSW1 162112Z 17010KT 19/04 A3002 RMK A01 T01920041  RH  037%=      5-min Rain = 0
KSW1 162113Z 17009KT 19/04 A3002 RMK A01 T01920043  RH  037%=      5-min Rain = 0
KSW1 162114Z 16014KT 19/04 A3002 RMK A01 T01930042  RH  037%=      5-min Rain = 0
KSW1 162115Z 17012KT 19/04 A3002 RMK A01 T01910040  RH  037%=      5-min Rain = 0
KSW1 162116Z 17009KT 19/04 A3002 RMK A01 T01900041  RH  037%=      5-min Rain = 0
KSW1 162117Z 18014KT 19/04 A3002 RMK A01 T01890042  RH  038%=      5-min Rain = 0
KSW1 162118Z 17013KT 19/04 A3002 RMK A01 T01890042  RH  038%=      5-min Rain = 0
KSW1 162119Z 17013KT 19/04 A3002 RMK A01 T01890042  RH  038%=      5-min Rain = 0
KSW1 162120Z 18013KT 19/04 A3002 RMK A01 T01890042  RH  038%=      5-min Rain = 0
KSW1 162121Z 18012KT 19/04 A3002 RMK A01 T01880042  RH  038%=      5-min Rain = 0
KSW1 162122Z 17011KT 19/04 A3002 RMK A01 T01880043  RH  038%=      5-min Rain = 0
KSW1 162123Z 17012KT 19/04 A3002 RMK A01 T01890043  RH  038%=      5-min Rain = 0
KSW1 162124Z 16010KT 19/04 A3002 RMK A01 T01890042  RH  038%=      5-min Rain = 0
KSW1 162125Z 15013KT 19/04 A3002 RMK A01 T01900041  RH  037%=      5-min Rain = 0
KSW1 162126Z 16011KT 19/04 A3002 RMK A01 T01900042  RH  037%=      5-min Rain = 0
KSW1 162127Z 17012KT 19/04 A3002 RMK A01 T01900042  RH  038%=      5-min Rain = 0
KSW1 162128Z 16010KT 19/04 A3002 RMK A01 T01900042  RH  037%=      5-min Rain = 0
KSW1 162129Z 16010KT 19/04 A3002 RMK A01 T01910043  RH  038%=      5-min Rain = 0
KSW1 162130Z 15012G17KT 19/04 A3002 RMK A01 T01910043  RH  038%=      5-min Rain = 0
KSW1 162131Z 16013KT 19/04 A3002 RMK A01 T01910042  RH  037%=      5-min Rain = 0
KSW1 162132Z 17013KT 19/04 A3002 RMK A01 T01920043  RH  037%=      5-min Rain = 0
KSW1 162133Z 16012KT 19/04 A3002 RMK A01 T01910041  RH  037%=      5-min Rain = 0
KSW1 162134Z 17013KT 19/04 A3002 RMK A01 T01920043  RH  037%=      5-min Rain = 0
KSW1 162135Z 17013KT 19/04 A3002 RMK A01 T01910042  RH  037%=      5-min Rain = 0
KSW1 162136Z 17014KT 19/04 A3002 RMK A01 T01890041  RH  038%=      5-min Rain = 0
KSW1 162137Z 16013G18KT 19/04 A3002 RMK A01 T01890043  RH  038%=      5-min Rain = 0
KSW1 162138Z 18014KT 19/04 A3002 RMK A01 T01890042  RH  038%=      5-min Rain = 0
KSW1 162139Z 17012KT 19/04 A3002 RMK A01 T01880042  RH  038%=      5-min Rain = 0
KSW1 162140Z 16010G16KT 19/04 A3002 RMK A01 T01890044  RH  038%=      5-min Rain = 0
KSW1 162141Z 17014KT 19/04 A3002 RMK A01 T01920044  RH  038%=      5-min Rain = 0
KSW1 162142Z 17017KT 19/04 A3001 RMK A01 T01940044  RH  037%=      5-min Rain = 0
KSW1 162143Z 17014G19KT 19/04 A3002 RMK A01 T01940042  RH  037%=      5-min Rain = 0
KSW1 162144Z 18014KT 19/04 A3002 RMK A01 T01920044  RH  037%=      5-min Rain = 0
KSW1 162145Z 17016KT 19/04 A3001 RMK A01 T01920043  RH  037%=      5-min Rain = 0
KSW1 162146Z 17016KT 19/04 A3001 RMK A01 T01920043  RH  037%=      5-min Rain = 0
KSW1 162147Z 17014KT 19/04 A3001 RMK A01 T01910042  RH  037%=      5-min Rain = 0
KSW1 162148Z 17014KT 19/04 A3001 RMK A01 T01910042  RH  037%=      5-min Rain = 0
KSW1 162149Z 16013G18KT 19/04 A3001 RMK A01 T01910042  RH  037%=      5-min Rain = 0
KSW1 162150Z 17011KT 19/04 A3001 RMK A01 T01930043  RH  037%=      5-min Rain = 0
KSW1 162151Z 16010KT 19/04 A3001 RMK A01 T01940044  RH  037%=      5-min Rain = 0
KSW1 162152Z 17011KT 20/04 A3001 RMK A01 T01950044  RH  037%=      5-min Rain = 0
KSW1 162153Z 17013KT 20/04 A3001 RMK A01 T01960044  RH  037%=      5-min Rain = 0
KSW1 162154Z 17010KT 19/04 A3001 RMK A01 T01940043  RH  037%=      5-min Rain = 0
KSW1 162155Z 16008G13KT 19/05 A3001 RMK A01 T01940045  RH  037%=      5-min Rain = 0
KSW1 162156Z 17009KT 19/04 A3001 RMK A01 T01930044  RH  037%=      5-min Rain = 0
KSW1 162157Z 18011KT 19/05 A3001 RMK A01 T01930045  RH  038%=      5-min Rain = 0
KSW1 162158Z 18013KT 19/04 A3001 RMK A01 T01930043  RH  037%=      5-min Rain = 0
KSW1 162159Z 19013KT 19/04 A3001 RMK A01 T01910042  RH  037%=      5-min Rain = 0
KSW1 162200Z 18013KT 19/04 A3001 RMK A01 T01900042  RH  038%=      5-min Rain = 0
KSW1 162201Z 19012KT 19/04 A3001 RMK A01 T01900042  RH  038%=      5-min Rain = 0
KSW1 162202Z 18012KT 19/04 A3001 RMK A01 T01890043  RH  038%=      5-min Rain = 0
KSW1 162203Z 17011KT 19/04 A3001 RMK A01 T01890044  RH  038%=      5-min Rain = 0
KSW1 162204Z 17012KT 19/04 A3001 RMK A01 T01890044  RH  038%=      5-min Rain = 0
KSW1 162205Z 18010KT 19/04 A3001 RMK A01 T01890044  RH  038%=      5-min Rain = 0
KSW1 162206Z 17010KT 19/05 A3001 RMK A01 T01890045  RH  038%=      5-min Rain = 0
KSW1 162207Z 18014KT 19/04 A3001 RMK A01 T01900044  RH  038%=      5-min Rain = 0
KSW1 162208Z 17014KT 19/04 A3001 RMK A01 T01890043  RH  038%=      5-min Rain = 0
KSW1 162209Z 18014KT 19/04 A3001 RMK A01 T01890042  RH  038%=      5-min Rain = 0
KSW1 162210Z 18012G17KT 19/04 A3001 RMK A01 T01880042  RH  038%=      5-min Rain = 0
KSW1 162211Z 19014KT 19/04 A3001 RMK A01 T01880043  RH  038%=      5-min Rain = 0
KSW1 162212Z 18014KT 19/04 A3001 RMK A01 T01880042  RH  038%=      5-min Rain = 0
KSW1 162213Z 18013KT 19/04 A3001 RMK A01 T01880042  RH  038%=      5-min Rain = 0
KSW1 162214Z 17013KT 19/04 A3001 RMK A01 T01880043  RH  038%=      5-min Rain = 0
KSW1 162215Z 18013KT 19/04 A3001 RMK A01 T01890044  RH  038%=      5-min Rain = 0
KSW1 162216Z 17011G16KT 19/05 A3001 RMK A01 T01900046  RH  038%=      5-min Rain = 0
KSW1 162217Z 17012KT 19/05 A3001 RMK A01 T01910046  RH  038%=      5-min Rain = 0
KSW1 162218Z 17013KT 19/04 A3001 RMK A01 T01910044  RH  038%=      5-min Rain = 0
KSW1 162219Z 17014KT 19/04 A3001 RMK A01 T01900044  RH  038%=      5-min Rain = 0
KSW1 162220Z 17017KT 19/04 A3001 RMK A01 T01890042  RH  038%=      5-min Rain = 0
KSW1 162221Z 17014KT 19/04 A3001 RMK A01 T01880042  RH  038%=      5-min Rain = 0
KSW1 162222Z 18014KT 19/04 A3001 RMK A01 T01870044  RH  039%=      5-min Rain = 0
KSW1 162223Z 19013KT 19/04 A3001 RMK A01 T01870044  RH  039%=      5-min Rain = 0
KSW1 162224Z 18012KT 19/04 A3001 RMK A01 T01870044  RH  039%=      5-min Rain = 0
KSW1 162225Z 19011KT 19/05 A3001 RMK A01 T01870045  RH  039%=      5-min Rain = 0
KSW1 162226Z 18015KT 19/05 A3001 RMK A01 T01870045  RH  039%=      5-min Rain = 0
KSW1 162227Z 18014KT 19/04 A3001 RMK A01 T01860043  RH  039%=      5-min Rain = 0
KSW1 162228Z 18014KT 19/04 A3001 RMK A01 T01850042  RH  039%=      5-min Rain = 0
KSW1 162229Z 18013KT 19/04 A3001 RMK A01 T01850044  RH  039%=      5-min Rain = 0
KSW1 162230Z 17012KT 19/04 A3001 RMK A01 T01850043  RH  039%=      5-min Rain = 0
KSW1 162231Z 17011KT 19/05 A3001 RMK A01 T01850045  RH  039%=      5-min Rain = 0
KSW1 162232Z 18012KT 19/04 A3001 RMK A01 T01850043  RH  039%=      5-min Rain = 0
KSW1 162233Z 17013KT 19/04 A3001 RMK A01 T01850044  RH  039%=      5-min Rain = 0
KSW1 162234Z 16011KT 19/04 A3001 RMK A01 T01850043  RH  039%=      5-min Rain = 0
KSW1 162235Z 16014KT 19/04 A3001 RMK A01 T01850043  RH  039%=      5-min Rain = 0
KSW1 162236Z 18015KT 19/04 A3001 RMK A01 T01850043  RH  039%=      5-min Rain = 0
KSW1 162237Z 17014KT 18/04 A3001 RMK A01 T01840042  RH  039%=      5-min Rain = 0
KSW1 162238Z 18013KT 18/04 A3001 RMK A01 T01830044  RH  040%=      5-min Rain = 0
KSW1 162239Z 17011KT 18/04 A3001 RMK A01 T01820044  RH  040%=      5-min Rain = 0
KSW1 162240Z 18011KT 18/04 A3001 RMK A01 T01820044  RH  040%=      5-min Rain = 0
KSW1 162241Z 17011KT 18/05 A3001 RMK A01 T01820045  RH  040%=      5-min Rain = 0
KSW1 162242Z 17013KT 18/04 A3001 RMK A01 T01820044  RH  040%=      5-min Rain = 0
KSW1 162243Z 16013KT 18/04 A3001 RMK A01 T01800042  RH  040%=      5-min Rain = 0
KSW1 162244Z 16014KT 18/04 A3001 RMK A01 T01800041  RH  040%=      5-min Rain = 0
KSW1 162245Z 17013KT 18/04 A3001 RMK A01 T01790041  RH  040%=      5-min Rain = 0
KSW1 162246Z 17013KT 18/04 A3001 RMK A01 T01790043  RH  040%=      5-min Rain = 0
KSW1 162247Z 17013KT 18/04 A3001 RMK A01 T01790044  RH  041%=      5-min Rain = 0
KSW1 162248Z 17013KT 18/04 A3001 RMK A01 T01790042  RH  040%=      5-min Rain = 0
KSW1 162249Z 18015KT 18/04 A3001 RMK A01 T01790042  RH  040%=      5-min Rain = 0
KSW1 162250Z 17013KT 18/04 A3001 RMK A01 T01790042  RH  040%=      5-min Rain = 0
KSW1 162251Z 17013KT 18/04 A3001 RMK A01 T01800043  RH  040%=      5-min Rain = 0
KSW1 162252Z 17013KT 18/04 A3001 RMK A01 T01790042  RH  040%=      5-min Rain = 0
KSW1 162253Z 17013KT 18/04 A3001 RMK A01 T01790042  RH  040%=      5-min Rain = 0
KSW1 162254Z 17012KT 18/04 A3001 RMK A01 T01790042  RH  040%=      5-min Rain = 0
KSW1 162255Z 17011KT 18/04 A3001 RMK A01 T01780044  RH  041%=      5-min Rain = 0
KSW1 162256Z 17014KT 18/04 A3001 RMK A01 T01780043  RH  041%=      5-min Rain = 0
KSW1 162257Z 17015KT 18/04 A3001 RMK A01 T01770041  RH  040%=      5-min Rain = 0
KSW1 162258Z 17016KT 18/04 A3001 RMK A01 T01770041  RH  041%=      5-min Rain = 0
KSW1 162259Z 17015KT 18/04 A3001 RMK A01 T01760041  RH  041%=      5-min Rain = 0
KSW1 162300Z 17014KT 18/04 A3001 RMK A01 T01750040  RH  041%=      5-min Rain = 0
KSW1 162301Z 17012KT 18/04 A3001 RMK A01 T01760040  RH  041%=      5-min Rain = 0
KSW1 162302Z 17010KT 18/04 A3001 RMK A01 T01750041  RH  041%=      5-min Rain = 0
KSW1 162303Z 17010KT 17/04 A30 RMK A01 T01740042  RH  041%=      5-min Rain = 0
KSW1 162304Z 17011KT 17/04 A30 RMK A01 T01740043  RH  042%=      5-min Rain = 0
KSW1 162305Z 17012KT 17/04 A30 RMK A01 T01730042  RH  042%=      5-min Rain = 0
KSW1 162306Z 17012KT 17/04 A30 RMK A01 T01730042  RH  042%=      5-min Rain = 0
KSW1 162307Z 18013KT 17/04 A30 RMK A01 T01730042  RH  042%=      5-min Rain = 0
KSW1 162308Z 17014KT 17/04 A3001 RMK A01 T01720042  RH  042%=      5-min Rain = 0
KSW1 162309Z 18013KT 17/04 A3001 RMK A01 T01720042  RH  042%=      5-min Rain = 0
KSW1 162310Z 17015KT 17/04 A3001 RMK A01 T01710041  RH  042%=      5-min Rain = 0
KSW1 162311Z 17013KT 17/04 A3001 RMK A01 T01710042  RH  042%=      5-min Rain = 0
KSW1 162312Z 18012KT 17/04 A3001 RMK A01 T01710042  RH  042%=      5-min Rain = 0
KSW1 162313Z 18010KT 17/04 A3001 RMK A01 T01700043  RH  043%=      5-min Rain = 0
KSW1 162314Z 17009KT 17/04 A3001 RMK A01 T01690044  RH  044%=      5-min Rain = 0
KSW1 162315Z 17009KT 17/04 A3001 RMK A01 T01680043  RH  044%=      5-min Rain = 0
KSW1 162316Z 17011KT 17/04 A3001 RMK A01 T01670042  RH  044%=      5-min Rain = 0
KSW1 162317Z 17010KT 17/04 A3001 RMK A01 T01670043  RH  044%=      5-min Rain = 0
KSW1 162318Z 17008KT 17/04 A3001 RMK A01 T01660043  RH  044%=      5-min Rain = 0
KSW1 162319Z 16012KT 17/04 A3001 RMK A01 T01650042  RH  044%=      5-min Rain = 0
KSW1 162320Z 17012KT 17/04 A3001 RMK A01 T01650041  RH  043%=      5-min Rain = 0
KSW1 162321Z 17009KT 17/04 A3001 RMK A01 T01650041  RH  043%=      5-min Rain = 0
KSW1 162322Z 17008KT 16/04 A3001 RMK A01 T01640042  RH  044%=      5-min Rain = 0
KSW1 162323Z 17010KT 16/04 A3001 RMK A01 T01630041  RH  044%=      5-min Rain = 0
KSW1 162324Z 17009KT 16/04 A3001 RMK A01 T01630041  RH  044%=      5-min Rain = 0
KSW1 162325Z 18011KT 16/04 A3001 RMK A01 T01620041  RH  045%=      5-min Rain = 0
KSW1 162326Z 18010KT 16/04 A3001 RMK A01 T01620042  RH  045%=      5-min Rain = 0
KSW1 162327Z 18009KT 16/04 A3001 RMK A01 T01610042  RH  045%=      5-min Rain = 0
KSW1 162328Z 17009KT 16/04 A3001 RMK A01 T01590042  RH  046%=      5-min Rain = 0
KSW1 162329Z 18009KT 16/04 A3001 RMK A01 T01590042  RH  046%=      5-min Rain = 0
KSW1 162330Z 18009KT 16/04 A3001 RMK A01 T01580043  RH  046%=      5-min Rain = 0
KSW1 162331Z 18010KT 16/04 A3001 RMK A01 T01570043  RH  046%=      5-min Rain = 0
KSW1 162332Z 18008KT 16/04 A3001 RMK A01 T01570042  RH  046%=      5-min Rain = 0
KSW1 162333Z 17008KT 16/04 A3002 RMK A01 T01560043  RH  047%=      5-min Rain = 0
KSW1 162334Z 18009KT 16/04 A3002 RMK A01 T01550042  RH  047%=      5-min Rain = 0
KSW1 162335Z 17008KT 15/04 A3002 RMK A01 T01540042  RH  047%=      5-min Rain = 0
KSW1 162336Z 17009KT 15/04 A3002 RMK A01 T01530042  RH  047%=      5-min Rain = 0
KSW1 162337Z 18009KT 15/04 A3002 RMK A01 T01530042  RH  047%=      5-min Rain = 0
KSW1 162338Z 18009KT 15/04 A3002 RMK A01 T01530042  RH  048%=      5-min Rain = 0
KSW1 162339Z 18010KT 15/04 A3002 RMK A01 T01530043  RH  048%=      5-min Rain = 0
KSW1 162340Z 18009KT 15/04 A3002 RMK A01 T01520042  RH  048%=      5-min Rain = 0
KSW1 162341Z 18009KT 15/04 A3002 RMK A01 T01520043  RH  048%=      5-min Rain = 0
KSW1 162342Z 17009KT 15/04 A3002 RMK A01 T01510043  RH  048%=      5-min Rain = 0
KSW1 162343Z 17010KT 15/04 A3002 RMK A01 T01500043  RH  049%=      5-min Rain = 0
KSW1 162344Z 17009KT 15/04 A3002 RMK A01 T01490043  RH  049%=      5-min Rain = 0
KSW1 162345Z 17008KT 15/04 A3002 RMK A01 T01490043  RH  049%=      5-min Rain = 0
KSW1 162346Z 17008KT 15/04 A3002 RMK A01 T01490043  RH  049%=      5-min Rain = 0
KSW1 162347Z 17009KT 15/04 A3002 RMK A01 T01480043  RH  049%=      5-min Rain = 0
KSW1 162348Z 17008KT 15/04 A3002 RMK A01 T01480043  RH  049%=      5-min Rain = 0
KSW1 162349Z 17007KT 15/04 A3002 RMK A01 T01470043  RH  050%=      5-min Rain = 0
KSW1 162350Z 17008KT 15/04 A3002 RMK A01 T01460043  RH  050%=      5-min Rain = 0
KSW1 162351Z 17008KT 14/04 A3003 RMK A01 T01440043  RH  050%=      5-min Rain = 0
KSW1 162352Z 18008KT 14/04 A3003 RMK A01 T01440043  RH  051%=      5-min Rain = 0
KSW1 162353Z 18007KT 14/04 A3003 RMK A01 T01430043  RH  051%=      5-min Rain = 0
KSW1 162354Z 18008KT 14/04 A3003 RMK A01 T01420043  RH  051%=      5-min Rain = 0
KSW1 162355Z 17007KT 14/04 A3003 RMK A01 T01420043  RH  051%=      5-min Rain = 0
KSW1 162356Z 17008KT 14/04 A3003 RMK A01 T01410043  RH  051%=      5-min Rain = 0
KSW1 162357Z 17007KT 14/04 A3003 RMK A01 T01410043  RH  052%=      5-min Rain = 0
KSW1 162358Z 17007KT 14/04 A3003 RMK A01 T01400043  RH  052%=      5-min Rain = 0
KSW1 162359Z 18008KT 14/04 A3003 RMK A01 T01390043  RH  052%=      5-min Rain = 0
KSW1 170000Z 18008KT 14/04 A3003 RMK A01 T01390043  RH  052%=      5-min Rain = 0
KSW1 170001Z 18008KT 14/04 A3003 RMK A01 T01390043  RH  052%=      5-min Rain = 0
KSW1 170002Z 18008KT 14/04 A3003 RMK A01 T01390043  RH  052%=      5-min Rain = 0
KSW1 170003Z 18008KT 14/04 A3003 RMK A01 T01390043  RH  053%=      5-min Rain = 0
KSW1 170004Z 18008KT 14/04 A3003 RMK A01 T01380043  RH  053%=      5-min Rain = 0
KSW1 170005Z 17008KT 14/04 A3003 RMK A01 T01380044  RH  053%=      5-min Rain = 0
KSW1 170006Z 17008KT 14/04 A3003 RMK A01 T01370044  RH  053%=      5-min Rain = 0
KSW1 170007Z 17008KT 14/04 A3003 RMK A01 T01370043  RH  053%=      5-min Rain = 0
KSW1 170008Z 17008KT 14/04 A3002 RMK A01 T01370043  RH  053%=      5-min Rain = 0
KSW1 170009Z 17008KT 14/04 A3002 RMK A01 T01370043  RH  053%=      5-min Rain = 0
KSW1 170010Z 17009KT 14/04 A3002 RMK A01 T01360043  RH  053%=      5-min Rain = 0
KSW1 170011Z 17009KT 14/04 A3002 RMK A01 T01360043  RH  053%=      5-min Rain = 0
KSW1 170012Z 17009KT 14/04 A3002 RMK A01 T01360042  RH  053%=      5-min Rain = 0
KSW1 170013Z 17008KT 14/04 A3002 RMK A01 T01370043  RH  053%=      5-min Rain = 0
KSW1 170014Z 17009KT 14/04 A3002 RMK A01 T01370043  RH  053%=      5-min Rain = 0
KSW1 170015Z 17009KT 14/04 A3002 RMK A01 T01370043  RH  053%=      5-min Rain = 0
KSW1 170016Z 17009KT 14/04 A3002 RMK A01 T01370043  RH  053%=      5-min Rain = 0
KSW1 170017Z 17009KT 14/04 A3002 RMK A01 T01370043  RH  053%=      5-min Rain = 0
KSW1 170018Z 16008KT 14/04 A3002 RMK A01 T01370043  RH  053%=      5-min Rain = 0
KSW1 170019Z 16008KT 14/04 A3002 RMK A01 T01360042  RH  053%=      5-min Rain = 0
KSW1 170020Z 16008KT 14/04 A3002 RMK A01 T01360043  RH  053%=      5-min Rain = 0
KSW1 170021Z 16008KT 14/04 A3002 RMK A01 T01360042  RH  053%=      5-min Rain = 0
KSW1 170022Z 16008KT 14/04 A3003 RMK A01 T01350042  RH  053%=      5-min Rain = 0
KSW1 170023Z 16008KT 13/04 A3003 RMK A01 T01340042  RH  054%=      5-min Rain = 0
KSW1 170024Z 16008KT 13/04 A3003 RMK A01 T01340042  RH  054%=      5-min Rain = 0
KSW1 170025Z 17008KT 13/04 A3003 RMK A01 T01330042  RH  054%=      5-min Rain = 0
KSW1 170026Z 16008KT 13/04 A3003 RMK A01 T01320042  RH  054%=      5-min Rain = 0
KSW1 170027Z 16008KT 13/04 A3003 RMK A01 T01310041  RH  055%=      5-min Rain = 0
KSW1 170028Z 16008KT 13/04 A3003 RMK A01 T01300041  RH  055%=      5-min Rain = 0
KSW1 170029Z 16008KT 13/04 A3003 RMK A01 T01290041  RH  055%=      5-min Rain = 0
KSW1 170030Z 16008KT 13/04 A3003 RMK A01 T01280041  RH  055%=      5-min Rain = 0
KSW1 170031Z 16008KT 13/04 A3002 RMK A01 T01270041  RH  056%=      5-min Rain = 0
KSW1 170032Z 16008KT 13/04 A3002 RMK A01 T01270041  RH  056%=      5-min Rain = 0
KSW1 170033Z 16008KT 13/04 A3002 RMK A01 T01270041  RH  056%=      5-min Rain = 0
KSW1 170034Z 16008KT 13/04 A3002 RMK A01 T01260041  RH  056%=      5-min Rain = 0
KSW1 170035Z 16008KT 13/04 A3003 RMK A01 T01250040  RH  056%=      5-min Rain = 0
KSW1 170036Z 16008KT 13/04 A3003 RMK A01 T01260041  RH  056%=      5-min Rain = 0
KSW1 170037Z 16008KT 13/04 A3003 RMK A01 T01260040  RH  056%=      5-min Rain = 0
KSW1 170038Z 16008KT 13/04 A3003 RMK A01 T01260040  RH  056%=      5-min Rain = 0
KSW1 170039Z 16008KT 13/04 A3003 RMK A01 T01270040  RH  056%=      5-min Rain = 0
KSW1 170040Z 16007KT 13/04 A3003 RMK A01 T01270040  RH  056%=      5-min Rain = 0
KSW1 170041Z 16007KT 13/04 A3003 RMK A01 T01270040  RH  055%=      5-min Rain = 0
KSW1 170042Z 16008KT 13/04 A3003 RMK A01 T01270040  RH  055%=      5-min Rain = 0
KSW1 170043Z 16008KT 13/04 A3003 RMK A01 T01270040  RH  055%=      5-min Rain = 0
KSW1 170044Z 16008KT 13/04 A3003 RMK A01 T01270040  RH  055%=      5-min Rain = 0
KSW1 170045Z 16008KT 13/04 A3003 RMK A01 T01270040  RH  055%=      5-min Rain = 0
KSW1 170046Z 16008KT 13/04 A3003 RMK A01 T01250039  RH  056%=      5-min Rain = 0
KSW1 170047Z 16009KT 13/04 A3002 RMK A01 T01250040  RH  056%=      5-min Rain = 0
KSW1 170048Z 16009KT 13/04 A3002 RMK A01 T01250039  RH  056%=      5-min Rain = 0
KSW1 170049Z 17009KT 13/04 A3002 RMK A01 T01260039  RH  056%=      5-min Rain = 0
KSW1 170050Z 16008KT 13/04 A3002 RMK A01 T01260040  RH  056%=      5-min Rain = 0
KSW1 170051Z 17009KT 13/04 A3002 RMK A01 T01250040  RH  056%=      5-min Rain = 0
KSW1 170052Z 17009KT 13/04 A3002 RMK A01 T01250040  RH  056%=      5-min Rain = 0
KSW1 170053Z 17008KT 13/04 A3002 RMK A01 T01250039  RH  056%=      5-min Rain = 0
KSW1 170054Z 17008KT 13/04 A3002 RMK A01 T01260039  RH  056%=      5-min Rain = 0
KSW1 170055Z 17008KT 13/04 A3002 RMK A01 T01260039  RH  055%=      5-min Rain = 0
KSW1 170056Z 17008KT 13/04 A3002 RMK A01 T01260039  RH  055%=      5-min Rain = 0
KSW1 170057Z 17008KT 13/04 A3002 RMK A01 T01270039  RH  055%=      5-min Rain = 0
KSW1 170058Z 17008KT 13/04 A3002 RMK A01 T01270040  RH  055%=      5-min Rain = 0
KSW1 170059Z 17008KT 13/04 A3002 RMK A01 T01270040  RH  055%=      5-min Rain = 0
KSW1 170100Z 17009KT 13/04 A3002 RMK A01 T01270039  RH  055%=      5-min Rain = 0
KSW1 170101Z 17008KT 13/04 A3002 RMK A01 T01280039  RH  055%=      5-min Rain = 0
KSW1 170102Z 17009KT 13/04 A3002 RMK A01 T01280039  RH  055%=      5-min Rain = 0
KSW1 170103Z 17008KT 13/04 A3002 RMK A01 T01290040  RH  055%=      5-min Rain = 0
KSW1 170104Z 17009KT 13/04 A3002 RMK A01 T01290040  RH  054%=      5-min Rain = 0
KSW1 170105Z 17009KT 13/04 A3002 RMK A01 T01290039  RH  054%=      5-min Rain = 0
KSW1 170106Z 17009KT 13/04 A3002 RMK A01 T01300040  RH  054%=      5-min Rain = 0
KSW1 170107Z 17009KT 13/04 A3002 RMK A01 T01300040  RH  054%=      5-min Rain = 0
KSW1 170108Z 17010KT 13/04 A3002 RMK A01 T01300040  RH  054%=      5-min Rain = 0
KSW1 170109Z 17010KT 13/04 A3002 RMK A01 T01300039  RH  054%=      5-min Rain = 0
KSW1 170110Z 17011KT 13/04 A3002 RMK A01 T01300039  RH  054%=      5-min Rain = 0
KSW1 170111Z 17010KT 13/04 A3002 RMK A01 T01320039  RH  054%=      5-min Rain = 0
KSW1 170112Z 17011KT 13/04 A3002 RMK A01 T01330040  RH  053%=      5-min Rain = 0
KSW1 170113Z 17011KT 13/04 A3002 RMK A01 T01330040  RH  053%=      5-min Rain = 0
KSW1 170114Z 17010KT 13/04 A3002 RMK A01 T01330040  RH  053%=      5-min Rain = 0
KSW1 170115Z 17011KT 13/04 A3002 RMK A01 T01320040  RH  054%=      5-min Rain = 0
KSW1 170116Z 17010KT 13/04 A3002 RMK A01 T01320040  RH  054%=      5-min Rain = 0
KSW1 170117Z 17010KT 13/04 A3002 RMK A01 T01310039  RH  054%=      5-min Rain = 0
KSW1 170118Z 17010KT 13/04 A3002 RMK A01 T01320040  RH  053%=      5-min Rain = 0
KSW1 170119Z 17011KT 13/04 A3002 RMK A01 T01320039  RH  053%=      5-min Rain = 0
KSW1 170120Z 17010KT 13/04 A3002 RMK A01 T01320039  RH  053%=      5-min Rain = 0
KSW1 170121Z 17011KT 13/04 A3002 RMK A01 T01330039  RH  053%=      5-min Rain = 0
KSW1 170122Z 17010KT 13/04 A3002 RMK A01 T01320039  RH  053%=      5-min Rain = 0
KSW1 170123Z 17009KT 13/04 A3002 RMK A01 T01320039  RH  053%=      5-min Rain = 0
KSW1 170124Z 17010KT 13/04 A3002 RMK A01 T01320039  RH  054%=      5-min Rain = 0
KSW1 170125Z 17010KT 13/04 A3002 RMK A01 T01310039  RH  054%=      5-min Rain = 0
KSW1 170126Z 17010KT 13/04 A3002 RMK A01 T01310039  RH  054%=      5-min Rain = 0
KSW1 170127Z 17009KT 13/04 A3002 RMK A01 T01310039  RH  054%=      5-min Rain = 0
KSW1 170128Z 17010KT 13/04 A3002 RMK A01 T01300039  RH  054%=      5-min Rain = 0
KSW1 170129Z 17011KT 13/04 A3002 RMK A01 T01300039  RH  054%=      5-min Rain = 0
KSW1 170130Z 17010KT 13/04 A3002 RMK A01 T01300038  RH  054%=      5-min Rain = 0
KSW1 170131Z 17009KT 13/04 A3002 RMK A01 T01310039  RH  054%=      5-min Rain = 0
KSW1 170132Z 17010KT 13/04 A3002 RMK A01 T01300039  RH  054%=      5-min Rain = 0
KSW1 170133Z 17010KT 13/04 A3002 RMK A01 T01300039  RH  054%=      5-min Rain = 0
KSW1 170134Z 17011KT 13/04 A3002 RMK A01 T01300038  RH  053%=      5-min Rain = 0
KSW1 170135Z 17010KT 13/04 A3002 RMK A01 T01310038  RH  054%=      5-min Rain = 0
KSW1 170136Z 17010KT 13/04 A3002 RMK A01 T01300039  RH  054%=      5-min Rain = 0
KSW1 170137Z 17011KT 13/04 A3002 RMK A01 T01300039  RH  054%=      5-min Rain = 0
KSW1 170138Z 17011KT 13/04 A3002 RMK A01 T01300039  RH  054%=      5-min Rain = 0
KSW1 170139Z 17011KT 13/04 A3002 RMK A01 T01290039  RH  054%=      5-min Rain = 0
KSW1 170140Z 17010KT 13/04 A3002 RMK A01 T01290039  RH  054%=      5-min Rain = 0
KSW1 170141Z 17010KT 13/04 A3002 RMK A01 T01290039  RH  054%=      5-min Rain = 0
KSW1 170142Z 18011KT 13/04 A3002 RMK A01 T01280038  RH  054%=      5-min Rain = 0
KSW1 170143Z 17010KT 13/04 A3002 RMK A01 T01280038  RH  054%=      5-min Rain = 0
KSW1 170144Z 17010KT 13/04 A3002 RMK A01 T01280039  RH  054%=      5-min Rain = 0
KSW1 170145Z 17010KT 13/04 A3002 RMK A01 T01280038  RH  055%=      5-min Rain = 0
KSW1 170146Z 17010KT 13/04 A3002 RMK A01 T01280039  RH  055%=      5-min Rain = 0
KSW1 170147Z 18010KT 13/04 A3002 RMK A01 T01270038  RH  055%=      5-min Rain = 0
KSW1 170148Z 18010KT 13/04 A3002 RMK A01 T01270038  RH  055%=      5-min Rain = 0
KSW1 170149Z 17011KT 13/04 A3002 RMK A01 T01270038  RH  055%=      5-min Rain = 0
KSW1 170150Z 18011KT 13/04 A3002 RMK A01 T01270038  RH  055%=      5-min Rain = 0
KSW1 170151Z 17010KT 13/04 A3002 RMK A01 T01280038  RH  054%=      5-min Rain = 0
KSW1 170152Z 17010KT 13/04 A3002 RMK A01 T01280039  RH  055%=      5-min Rain = 0
KSW1 170153Z 17010KT 13/04 A3002 RMK A01 T01270038  RH  055%=      5-min Rain = 0
KSW1 170154Z 17010KT 13/04 A3002 RMK A01 T01270038  RH  055%=      5-min Rain = 0
KSW1 170155Z 17011KT 13/04 A3002 RMK A01 T01260038  RH  055%=      5-min Rain = 0
KSW1 170156Z 17011KT 13/04 A3001 RMK A01 T01270038  RH  055%=      5-min Rain = 0
KSW1 170157Z 17011KT 13/04 A3001 RMK A01 T01270038  RH  054%=      5-min Rain = 0
KSW1 170158Z 17010KT 13/04 A3001 RMK A01 T01280038  RH  054%=      5-min Rain = 0
KSW1 170159Z 17011KT 13/04 A3001 RMK A01 T01280038  RH  054%=      5-min Rain = 0
KSW1 170200Z 17011KT 13/04 A3001 RMK A01 T01270038  RH  055%=      5-min Rain = 0
KSW1 170201Z 18010KT 13/04 A3001 RMK A01 T01270038  RH  054%=      5-min Rain = 0
KSW1 170202Z 18011KT 13/04 A3001 RMK A01 T01270038  RH  055%=      5-min Rain = 0
KSW1 170203Z 17011KT 13/04 A3001 RMK A01 T01260038  RH  055%=      5-min Rain = 0
KSW1 170204Z 18011KT 13/04 A3001 RMK A01 T01260038  RH  055%=      5-min Rain = 0
KSW1 170205Z 17013KT 13/04 A3001 RMK A01 T01260037  RH  055%=      5-min Rain = 0
KSW1 170206Z 17011KT 13/04 A3001 RMK A01 T01270038  RH  055%=      5-min Rain = 0
KSW1 170207Z 18013KT 13/04 A3001 RMK A01 T01260037  RH  055%=      5-min Rain = 0
KSW1 170208Z 18012KT 13/04 A3001 RMK A01 T01260037  RH  055%=      5-min Rain = 0
KSW1 170209Z 17011KT 13/04 A3001 RMK A01 T01260038  RH  055%=      5-min Rain = 0
KSW1 170210Z 17012KT 13/04 A3001 RMK A01 T01260038  RH  055%=      5-min Rain = 0
KSW1 170211Z 17012KT 13/04 A3001 RMK A01 T01250038  RH  055%=      5-min Rain = 0
KSW1 170212Z 18012KT 13/04 A3001 RMK A01 T01250038  RH  055%=      5-min Rain = 0
KSW1 170213Z 17011KT 13/04 A3001 RMK A01 T01250038  RH  055%=      5-min Rain = 0
KSW1 170214Z 17011KT 12/04 A3001 RMK A01 T01240038  RH  056%=      5-min Rain = 0
KSW1 170215Z 18011KT 12/04 A3001 RMK A01 T01230038  RH  056%=      5-min Rain = 0
KSW1 170216Z 17011KT 12/04 A3001 RMK A01 T01230038  RH  056%=      5-min Rain = 0
KSW1 170217Z 17011KT 12/04 A3001 RMK A01 T01230038  RH  056%=      5-min Rain = 0
KSW1 170218Z 17011KT 12/04 A3001 RMK A01 T01230038  RH  056%=      5-min Rain = 0
KSW1 170219Z 17012KT 12/04 A3001 RMK A01 T01220037  RH  056%=      5-min Rain = 0
KSW1 170220Z 17010KT 12/04 A3001 RMK A01 T01230038  RH  056%=      5-min Rain = 0
KSW1 170221Z 17011KT 12/04 A3001 RMK A01 T01230038  RH  056%=      5-min Rain = 0
KSW1 170222Z 17012KT 12/04 A3001 RMK A01 T01230038  RH  056%=      5-min Rain = 0
KSW1 170223Z 18012KT 12/04 A3001 RMK A01 T01220037  RH  056%=      5-min Rain = 0
KSW1 170224Z 17013KT 12/04 A3001 RMK A01 T01230038  RH  056%=      5-min Rain = 0
KSW1 170225Z 17012KT 12/04 A3001 RMK A01 T01220037  RH  056%=      5-min Rain = 0
KSW1 170226Z 17012KT 12/04 A3001 RMK A01 T01220037  RH  056%=      5-min Rain = 0
KSW1 170227Z 17012KT 12/04 A3001 RMK A01 T01220037  RH  056%=      5-min Rain = 0
KSW1 170228Z 18013KT 12/04 A3001 RMK A01 T01220037  RH  056%=      5-min Rain = 0
KSW1 170229Z 18013KT 12/04 A3001 RMK A01 T01220037  RH  056%=      5-min Rain = 0
KSW1 170230Z 17013KT 12/04 A3001 RMK A01 T01210037  RH  056%=      5-min Rain = 0
KSW1 170231Z 18014KT 12/04 A3001 RMK A01 T01210037  RH  057%=      5-min Rain = 0
KSW1 170232Z 18013KT 12/04 A3001 RMK A01 T01210037  RH  057%=      5-min Rain = 0
KSW1 170233Z 17013KT 12/04 A3001 RMK A01 T01210037  RH  057%=      5-min Rain = 0
KSW1 170234Z 18013KT 12/04 A3001 RMK A01 T01200037  RH  057%=      5-min Rain = 0
KSW1 170235Z 18012KT 12/04 A3001 RMK A01 T01200037  RH  057%=      5-min Rain = 0
KSW1 170236Z 17013KT 12/04 A3001 RMK A01 T01200037  RH  057%=      5-min Rain = 0
KSW1 170237Z 18014KT 12/04 A3001 RMK A01 T01200038  RH  057%=      5-min Rain = 0
KSW1 170238Z 17014KT 12/04 A3001 RMK A01 T01190037  RH  057%=      5-min Rain = 0
KSW1 170239Z 17013KT 12/04 A3001 RMK A01 T01190037  RH  057%=      5-min Rain = 0
KSW1 170240Z 17015KT 12/04 A3001 RMK A01 T01190037  RH  057%=      5-min Rain = 0
KSW1 170241Z 17013KT 12/04 A3001 RMK A01 T01190037  RH  057%=      5-min Rain = 0
KSW1 170242Z 18015KT 12/04 A3001 RMK A01 T01190037  RH  057%=      5-min Rain = 0
KSW1 170243Z 17013KT 12/04 A3001 RMK A01 T01190037  RH  057%=      5-min Rain = 0
KSW1 170244Z 17014KT 12/04 A3001 RMK A01 T01180037  RH  058%=      5-min Rain = 0
KSW1 170245Z 18014KT 12/04 A3001 RMK A01 T01170037  RH  058%=      5-min Rain = 0
KSW1 170246Z 18013KT 12/04 A3001 RMK A01 T01170037  RH  058%=      5-min Rain = 0
KSW1 170247Z 17014KT 12/04 A3001 RMK A01 T01170037  RH  058%=      5-min Rain = 0
KSW1 170248Z 18014KT 12/04 A3001 RMK A01 T01170037  RH  058%=      5-min Rain = 0
KSW1 170249Z 18015KT 12/04 A3001 RMK A01 T01170037  RH  058%=      5-min Rain = 0
KSW1 170250Z 17013KT 12/04 A3001 RMK A01 T01170036  RH  058%=      5-min Rain = 0
KSW1 170251Z 18014KT 12/04 A3001 RMK A01 T01170036  RH  058%=      5-min Rain = 0
KSW1 170252Z 17015KT 12/04 A3001 RMK A01 T01160036  RH  058%=      5-min Rain = 0
KSW1 170253Z 18014G20KT 12/04 A3001 RMK A01 T01170037  RH  058%=      5-min Rain = 0
KSW1 170254Z 18013KT 12/04 A3001 RMK A01 T01170037  RH  058%=      5-min Rain = 0
KSW1 170255Z 18015KT 12/04 A3001 RMK A01 T01160037  RH  058%=      5-min Rain = 0
KSW1 170256Z 18014KT 12/04 A3001 RMK A01 T01160037  RH  058%=      5-min Rain = 0
KSW1 170257Z 18014KT 12/04 A3001 RMK A01 T01160037  RH  058%=      5-min Rain = 0
KSW1 170258Z 18014KT 12/04 A3001 RMK A01 T01160036  RH  058%=      5-min Rain = 0
KSW1 170259Z 18013KT 12/04 A3001 RMK A01 T01160036  RH  058%=      5-min Rain = 0
KSW1 170300Z 18012KT 12/04 A3001 RMK A01 T01150037  RH  059%=      5-min Rain = 0
KSW1 170301Z 18012G17KT 11/04 A3001 RMK A01 T01140037  RH  059%=      5-min Rain = 0
KSW1 170302Z 18013KT 11/04 A30 RMK A01 T01130036  RH  059%=      5-min Rain = 0
KSW1 170303Z 18012KT 11/04 A30 RMK A01 T01130036  RH  059%=      5-min Rain = 0
KSW1 170304Z 18013KT 11/04 A30 RMK A01 T01120037  RH  060%=      5-min Rain = 0
KSW1 170305Z 18012KT 11/04 A30 RMK A01 T01120037  RH  060%=      5-min Rain = 0
KSW1 170306Z 18011KT 11/04 A30 RMK A01 T01110036  RH  060%=      5-min Rain = 0
KSW1 170307Z 18011KT 11/04 A30 RMK A01 T01110037  RH  060%=      5-min Rain = 0
KSW1 170308Z 18013KT 11/04 A30 RMK A01 T01110037  RH  060%=      5-min Rain = 0
KSW1 170309Z 18012KT 11/04 A30 RMK A01 T01100036  RH  060%=      5-min Rain = 0
KSW1 170310Z 19012KT 11/04 A30 RMK A01 T01100037  RH  060%=      5-min Rain = 0
KSW1 170311Z 19013KT 11/04 A30 RMK A01 T01100037  RH  061%=      5-min Rain = 0
KSW1 170312Z 19012KT 11/04 A3001 RMK A01 T01090036  RH  061%=      5-min Rain = 0
KSW1 170313Z 19013KT 11/04 A3001 RMK A01 T01090036  RH  061%=      5-min Rain = 0
KSW1 170314Z 19012KT 11/04 A3001 RMK A01 T01090037  RH  061%=      5-min Rain = 0
KSW1 170315Z 18012KT 11/04 A3001 RMK A01 T01090037  RH  061%=      5-min Rain = 0
KSW1 170316Z 19011KT 11/04 A3001 RMK A01 T01080037  RH  061%=      5-min Rain = 0
KSW1 170317Z 19013KT 11/04 A3001 RMK A01 T01080037  RH  062%=      5-min Rain = 0
KSW1 170318Z 18013KT 11/04 A3001 RMK A01 T01080037  RH  062%=      5-min Rain = 0
KSW1 170319Z 18011KT 11/04 A3001 RMK A01 T01080036  RH  061%=      5-min Rain = 0
KSW1 170320Z 18012KT 11/04 A3001 RMK A01 T01080037  RH  061%=      5-min Rain = 0
KSW1 170321Z 18013KT 11/04 A3001 RMK A01 T01070037  RH  062%=      5-min Rain = 0
KSW1 170322Z 18012KT 11/04 A3001 RMK A01 T01070037  RH  062%=      5-min Rain = 0
KSW1 170323Z 18012KT 11/04 A3001 RMK A01 T01070037  RH  062%=      5-min Rain = 0
KSW1 170324Z 19012KT 11/04 A3001 RMK A01 T01070037  RH  062%=      5-min Rain = 0
KSW1 170325Z 18012KT 11/04 A3001 RMK A01 T01060037  RH  062%=      5-min Rain = 0
KSW1 170326Z 19011KT 11/04 A3001 RMK A01 T01060037  RH  062%=      5-min Rain = 0
KSW1 170327Z 19010KT 11/04 A3001 RMK A01 T01050037  RH  063%=      5-min Rain = 0
KSW1 170328Z 19011KT 11/04 A3001 RMK A01 T01050037  RH  063%=      5-min Rain = 0
KSW1 170329Z 19012KT 10/04 A3001 RMK A01 T01040037  RH  063%=      5-min Rain = 0
KSW1 170330Z 19010KT 10/04 A3001 RMK A01 T01040037  RH  063%=      5-min Rain = 0
KSW1 170331Z 18009KT 10/04 A3001 RMK A01 T01040037  RH  063%=      5-min Rain = 0
KSW1 170332Z 18010KT 10/04 A3001 RMK A01 T01040037  RH  063%=      5-min Rain = 0
KSW1 170333Z 18011KT 10/04 A3001 RMK A01 T01030037  RH  063%=      5-min Rain = 0
KSW1 170334Z 18011KT 10/04 A3001 RMK A01 T01030037  RH  063%=      5-min Rain = 0
KSW1 170335Z 18010KT 10/04 A3001 RMK A01 T01040037  RH  063%=      5-min Rain = 0
KSW1 170336Z 18011KT 10/04 A3001 RMK A01 T01040037  RH  063%=      5-min Rain = 0
KSW1 170337Z 18010KT 10/04 A3001 RMK A01 T01040038  RH  063%=      5-min Rain = 0
KSW1 170338Z 18011KT 10/04 A3001 RMK A01 T01030037  RH  064%=      5-min Rain = 0
KSW1 170339Z 18012KT 10/04 A3001 RMK A01 T01020037  RH  064%=      5-min Rain = 0
KSW1 170340Z 18011KT 10/04 A3001 RMK A01 T01020037  RH  064%=      5-min Rain = 0
KSW1 170341Z 18012KT 10/04 A3001 RMK A01 T01020037  RH  064%=      5-min Rain = 0
KSW1 170342Z 18011KT 10/04 A3001 RMK A01 T01020037  RH  064%=      5-min Rain = 0
KSW1 170343Z 18011KT 10/04 A3001 RMK A01 T01020037  RH  064%=      5-min Rain = 0
KSW1 170344Z 18012KT 10/04 A3001 RMK A01 T01020037  RH  064%=      5-min Rain = 0
KSW1 170345Z 18012KT 10/04 A3001 RMK A01 T01020037  RH  064%=      5-min Rain = 0
KSW1 170346Z 18011KT 10/04 A3001 RMK A01 T01020037  RH  064%=      5-min Rain = 0
KSW1 170347Z 18013KT 10/04 A3001 RMK A01 T01020037  RH  064%=      5-min Rain = 0
KSW1 170348Z 18011KT 10/04 A3001 RMK A01 T01030037  RH  064%=      5-min Rain = 0
KSW1 170349Z 18013KT 10/04 A3001 RMK A01 T01030037  RH  064%=      5-min Rain = 0
KSW1 170350Z 18013KT 10/04 A3001 RMK A01 T01030037  RH  064%=      5-min Rain = 0
KSW1 170351Z 18013KT 10/04 A3001 RMK A01 T01030037  RH  064%=      5-min Rain = 0
KSW1 170352Z 18011KT 10/04 A3001 RMK A01 T01030037  RH  064%=      5-min Rain = 0
KSW1 170353Z 18012KT 10/04 A3001 RMK A01 T01030038  RH  064%=      5-min Rain = 0
KSW1 170354Z 18011KT 10/04 A3001 RMK A01 T01030038  RH  064%=      5-min Rain = 0
KSW1 170355Z 18011KT 10/04 A3001 RMK A01 T01030038  RH  064%=      5-min Rain = 0
KSW1 170356Z 18011KT 10/04 A3001 RMK A01 T01020038  RH  064%=      5-min Rain = 0
KSW1 170357Z 19012KT 10/04 A3001 RMK A01 T01020038  RH  065%=      5-min Rain = 0
KSW1 170358Z 18010KT 10/04 A3001 RMK A01 T01020038  RH  064%=      5-min Rain = 0
KSW1 170359Z 18012KT 10/04 A3001 RMK A01 T01020038  RH  064%=      5-min Rain = 0
KSW1 170400Z 18012KT 10/04 A3001 RMK A01 T01020038  RH  064%=      5-min Rain = 0
KSW1 170401Z 18010KT 10/04 A3001 RMK A01 T01020038  RH  064%=      5-min Rain = 0
KSW1 170402Z 19010KT 10/04 A3001 RMK A01 T01020038  RH  065%=      5-min Rain = 0
KSW1 170403Z 18010KT 10/04 A3001 RMK A01 T01010038  RH  065%=      5-min Rain = 0
KSW1 170404Z 19010KT 10/04 A3001 RMK A01 T01010038  RH  065%=      5-min Rain = 0
KSW1 170405Z 18010KT 10/04 A3001 RMK A01 T01010038  RH  065%=      5-min Rain = 0
KSW1 170406Z 19011KT 10/04 A3001 RMK A01 T01010038  RH  065%=      5-min Rain = 0
KSW1 170407Z 19009KT 10/04 A3001 RMK A01 T01010038  RH  065%=      5-min Rain = 0
KSW1 170408Z 19011KT 10/04 A3001 RMK A01 T01000038  RH  065%=      5-min Rain = 0
KSW1 170409Z 19010KT 10/04 A3001 RMK A01 T01000038  RH  065%=      5-min Rain = 0
KSW1 170410Z 19011KT 10/04 A3001 RMK A01 T01000038  RH  065%=      5-min Rain = 0
KSW1 170411Z 19011KT 10/04 A3001 RMK A01 T01000038  RH  065%=      5-min Rain = 0
KSW1 170412Z 19011KT 10/04 A3001 RMK A01 T01010038  RH  065%=      5-min Rain = 0
KSW1 170413Z 19010KT 10/04 A3001 RMK A01 T01000038  RH  065%=      5-min Rain = 0
KSW1 170414Z 19011KT 10/04 A3001 RMK A01 T01010038  RH  065%=      5-min Rain = 0
KSW1 170415Z 19011KT 10/04 A3001 RMK A01 T01000038  RH  065%=      5-min Rain = 0
KSW1 170416Z 19009KT 10/04 A3001 RMK A01 T01000038  RH  065%=      5-min Rain = 0
KSW1 170417Z 19011KT 10/04 A3001 RMK A01 T01000038  RH  065%=      5-min Rain = 0
KSW1 170418Z 19010KT 10/04 A3001 RMK A01 T01000038  RH  065%=      5-min Rain = 0
KSW1 170419Z 19011KT 10/04 A3001 RMK A01 T01000038  RH  065%=      5-min Rain = 0
KSW1 170420Z 19010KT 10/04 A3001 RMK A01 T01000038  RH  065%=      5-min Rain = 0
KSW1 170421Z 19010KT 10/04 A3001 RMK A01 T01000038  RH  065%=      5-min Rain = 0
KSW1 170422Z 19012KT 10/04 A3001 RMK A01 T01000039  RH  066%=      5-min Rain = 0
KSW1 170423Z 19010KT 10/04 A3001 RMK A01 T01000038  RH  065%=      5-min Rain = 0
KSW1 170424Z 18009KT 10/04 A3001 RMK A01 T01000038  RH  065%=      5-min Rain = 0
KSW1 170425Z 18009KT 10/04 A3001 RMK A01 T01000038  RH  065%=      5-min Rain = 0
KSW1 170426Z 19011KT 10/04 A3001 RMK A01 T01000039  RH  066%=      5-min Rain = 0
KSW1 170427Z 18011KT 10/04 A3001 RMK A01 T01000038  RH  066%=      5-min Rain = 0
KSW1 170428Z 18011KT 10/04 A3001 RMK A01 T01000038  RH  066%=      5-min Rain = 0
KSW1 170429Z 18009KT 10/04 A3001 RMK A01 T00990039  RH  066%=      5-min Rain = 0
KSW1 170430Z 18011KT 10/04 A3001 RMK A01 T00990038  RH  066%=      5-min Rain = 0
KSW1 170431Z 18011KT 10/04 A3001 RMK A01 T00990039  RH  066%=      5-min Rain = 0
KSW1 170432Z 18011KT 10/04 A30 RMK A01 T00990039  RH  066%=      5-min Rain = 0
KSW1 170433Z 18010KT 10/04 A30 RMK A01 T00990038  RH  066%=      5-min Rain = 0
KSW1 170434Z 18011KT 10/04 A30 RMK A01 T00990039  RH  066%=      5-min Rain = 0
KSW1 170435Z 18011KT 10/04 A30 RMK A01 T00990039  RH  066%=      5-min Rain = 0
KSW1 170436Z 18012KT 10/04 A30 RMK A01 T00990038  RH  066%=      5-min Rain = 0
KSW1 170437Z 18010KT 10/04 A30 RMK A01 T00990038  RH  066%=      5-min Rain = 0
KSW1 170438Z 18011KT 10/04 A30 RMK A01 T00990038  RH  066%=      5-min Rain = 0
KSW1 170439Z 18011KT 10/04 A30 RMK A01 T00980038  RH  066%=      5-min Rain = 0
KSW1 170440Z 18011KT 10/04 A30 RMK A01 T00980039  RH  067%=      5-min Rain = 0
KSW1 170441Z 18011KT 10/04 A30 RMK A01 T00970038  RH  067%=      5-min Rain = 0
KSW1 170442Z 18011KT 10/04 A30 RMK A01 T00970038  RH  067%=      5-min Rain = 0
KSW1 170443Z 18011KT 10/04 A30 RMK A01 T00970039  RH  067%=      5-min Rain = 0
KSW1 170444Z 18011KT 10/04 A30 RMK A01 T00960038  RH  067%=      5-min Rain = 0
KSW1 170445Z 18012G17KT 10/04 A30 RMK A01 T00960038  RH  067%=      5-min Rain = 0
KSW1 170446Z 18013KT 10/04 A30 RMK A01 T00960039  RH  067%=      5-min Rain = 0
KSW1 170447Z 18012KT 10/04 A30 RMK A01 T00960038  RH  067%=      5-min Rain = 0
KSW1 170448Z 18015KT 10/04 A30 RMK A01 T00970038  RH  067%=      5-min Rain = 0
KSW1 170449Z 18013KT 10/04 A30 RMK A01 T00970038  RH  067%=      5-min Rain = 0
KSW1 170450Z 18013KT 10/04 A30 RMK A01 T00970038  RH  067%=      5-min Rain = 0
KSW1 170451Z 18013KT 10/04 A30 RMK A01 T00970038  RH  067%=      5-min Rain = 0
KSW1 170452Z 18014KT 10/04 A30 RMK A01 T00970038  RH  067%=      5-min Rain = 0
KSW1 170453Z 18014KT 10/04 A2999 RMK A01 T00980039  RH  067%=      5-min Rain = 0
KSW1 170454Z 18013KT 10/04 A2999 RMK A01 T00980039  RH  066%=      5-min Rain = 0
KSW1 170455Z 18013KT 10/04 A2999 RMK A01 T00980039  RH  066%=      5-min Rain = 0
KSW1 170456Z 18012KT 10/04 A2999 RMK A01 T00980039  RH  066%=      5-min Rain = 0
KSW1 170457Z 18012KT 10/04 A2999 RMK A01 T00970039  RH  067%=      5-min Rain = 0
KSW1 170458Z 18012G18KT 10/04 A2999 RMK A01 T00970039  RH  067%=      5-min Rain = 0
KSW1 170459Z 18013KT 10/04 A2999 RMK A01 T00970038  RH  067%=      5-min Rain = 0
KSW1 170500Z 18011KT 10/04 A2999 RMK A01 T00970039  RH  067%=      5-min Rain = 0
KSW1 170501Z 18012KT 10/04 A2999 RMK A01 T00970039  RH  067%=      5-min Rain = 0
KSW1 170502Z 18012KT 10/04 A2999 RMK A01 T00960039  RH  067%=      5-min Rain = 0
KSW1 170503Z 18014KT 10/04 A2999 RMK A01 T00960039  RH  067%=      5-min Rain = 0
KSW1 170504Z 18013KT 10/04 A2999 RMK A01 T00960038  RH  067%=      5-min Rain = 0
KSW1 170505Z 18013KT 10/04 A2999 RMK A01 T00960038  RH  067%=      5-min Rain = 0
KSW1 170506Z 18013KT 10/04 A2999 RMK A01 T00960039  RH  067%=      5-min Rain = 0
KSW1 170507Z 18011KT 10/04 A2999 RMK A01 T00960039  RH  067%=      5-min Rain = 0
KSW1 170508Z 18012KT 10/04 A30 RMK A01 T00960039  RH  067%=      5-min Rain = 0
KSW1 170509Z 18011KT 10/04 A30 RMK A01 T00960039  RH  067%=      5-min Rain = 0
KSW1 170510Z 19011KT 10/04 A30 RMK A01 T00960039  RH  067%=      5-min Rain = 0
KSW1 170511Z 19012KT 10/04 A30 RMK A01 T00960038  RH  067%=      5-min Rain = 0
KSW1 170512Z 19012KT 10/04 A30 RMK A01 T00960039  RH  067%=      5-min Rain = 0
KSW1 170513Z 19010KT 10/04 A30 RMK A01 T00960039  RH  067%=      5-min Rain = 0
KSW1 170514Z 19010KT 10/04 A30 RMK A01 T00950039  RH  068%=      5-min Rain = 0
KSW1 170515Z 19010KT 09/04 A30 RMK A01 T00940038  RH  068%=      5-min Rain = 0
KSW1 170516Z 19011KT 09/04 A30 RMK A01 T00940038  RH  068%=      5-min Rain = 0
KSW1 170517Z 18011KT 09/04 A30 RMK A01 T00940038  RH  068%=      5-min Rain = 0
KSW1 170518Z 18010KT 09/04 A30 RMK A01 T00940038  RH  068%=      5-min Rain = 0
KSW1 170519Z 19010KT 09/04 A30 RMK A01 T00940038  RH  068%=      5-min Rain = 0
KSW1 170520Z 19009KT 09/04 A30 RMK A01 T00940038  RH  068%=      5-min Rain = 0
KSW1 170521Z 19010KT 09/04 A30 RMK A01 T00930038  RH  068%=      5-min Rain = 0
KSW1 170522Z 19010KT 09/04 A30 RMK A01 T00930038  RH  069%=      5-min Rain = 0
KSW1 170523Z 19011KT 09/04 A30 RMK A01 T00930038  RH  069%=      5-min Rain = 0
KSW1 170524Z 19009KT 09/04 A30 RMK A01 T00930038  RH  069%=      5-min Rain = 0
KSW1 170525Z 19010KT 09/04 A30 RMK A01 T00930038  RH  069%=      5-min Rain = 0
KSW1 170526Z 19010KT 09/04 A30 RMK A01 T00920038  RH  069%=      5-min Rain = 0
KSW1 170527Z 19009KT 09/04 A30 RMK A01 T00920038  RH  069%=      5-min Rain = 0
KSW1 170528Z 19009KT 09/04 A30 RMK A01 T00920039  RH  069%=      5-min Rain = 0
KSW1 170529Z 19010KT 09/04 A30 RMK A01 T00910038  RH  069%=      5-min Rain = 0
KSW1 170530Z 19011KT 09/04 A30 RMK A01 T00920038  RH  069%=      5-min Rain = 0
KSW1 170531Z 19011KT 09/04 A30 RMK A01 T00920038  RH  069%=      5-min Rain = 0
KSW1 170532Z 19011KT 09/04 A30 RMK A01 T00920038  RH  069%=      5-min Rain = 0
KSW1 170533Z 18010KT 09/04 A30 RMK A01 T00920038  RH  069%=      5-min Rain = 0
KSW1 170534Z 19011KT 09/04 A30 RMK A01 T00920038  RH  069%=      5-min Rain = 0
KSW1 170535Z 18011KT 09/04 A30 RMK A01 T00920038  RH  069%=      5-min Rain = 0
KSW1 170536Z 18010KT 09/04 A30 RMK A01 T00920039  RH  069%=      5-min Rain = 0
KSW1 170537Z 18010KT 09/04 A30 RMK A01 T00920039  RH  069%=      5-min Rain = 0
KSW1 170538Z 19011KT 09/04 A30 RMK A01 T00920039  RH  069%=      5-min Rain = 0
KSW1 170539Z 18011KT 09/04 A30 RMK A01 T00910038  RH  069%=      5-min Rain = 0
KSW1 170540Z 18010KT 09/04 A30 RMK A01 T00910039  RH  070%=      5-min Rain = 0
KSW1 170541Z 18010KT 09/04 A30 RMK A01 T00910039  RH  070%=      5-min Rain = 0
KSW1 170542Z 18012KT 09/04 A2999 RMK A01 T00910039  RH  070%=      5-min Rain = 0
KSW1 170543Z 18011KT 09/04 A2999 RMK A01 T00910039  RH  070%=      5-min Rain = 0
KSW1 170544Z 19011KT 09/04 A2999 RMK A01 T00910038  RH  070%=      5-min Rain = 0
KSW1 170545Z 18011KT 09/04 A2999 RMK A01 T00910038  RH  069%=      5-min Rain = 0
KSW1 170546Z 18011KT 09/04 A2999 RMK A01 T00920038  RH  069%=      5-min Rain = 0
KSW1 170547Z 18011KT 09/04 A2999 RMK A01 T00920039  RH  069%=      5-min Rain = 0
KSW1 170548Z 18011KT 09/04 A2999 RMK A01 T00910039  RH  070%=      5-min Rain = 0
KSW1 170549Z 18010KT 09/04 A2999 RMK A01 T00910039  RH  070%=      5-min Rain = 0
KSW1 170550Z 18009KT 09/04 A2999 RMK A01 T00910039  RH  069%=      5-min Rain = 0
KSW1 170551Z 18011KT 09/04 A2999 RMK A01 T00910038  RH  069%=      5-min Rain = 0
KSW1 170552Z 19011KT 09/04 A2999 RMK A01 T00920038  RH  069%=      5-min Rain = 0
KSW1 170553Z 18010KT 09/04 A2999 RMK A01 T00920038  RH  069%=      5-min Rain = 0
KSW1 170554Z 18011KT 09/04 A2999 RMK A01 T00920039  RH  069%=      5-min Rain = 0
KSW1 170555Z 18010KT 09/04 A2999 RMK A01 T00920039  RH  069%=      5-min Rain = 0
KSW1 170556Z 18011KT 09/04 A2999 RMK A01 T00920039  RH  069%=      5-min Rain = 0
KSW1 170557Z 19010KT 09/04 A2999 RMK A01 T00920039  RH  069%=      5-min Rain = 0
KSW1 170558Z 18011KT 09/04 A30 RMK A01 T00920038  RH  069%=      5-min Rain = 0
KSW1 170559Z 18011KT 09/04 A2999 RMK A01 T00920039  RH  069%=      5-min Rain = 0

Page generated in 0.0832 seconds.